[{"header": {"dx": 0.06612293990616946, "dy": 0.0552356325346848, "nx": 98, "ny": 59, "la1": 35.046912555036876, "la2": 31.78801023549047, "lo1": -121.43107172385933, "lo2": -114.95102361305473, "refTime": "2026040707", "parameterCategory": 1, "parameterNumber": 2}, "data": [7.56, 7.56, 7.56, 7.56, 7.56, 7.27, 7.22, 6.93, 6.58, 5.94, 5.21, 4.16, 1.27, 0.0, 1.79, 0.89, 0.0, 0.0, -1.4, -2.15, -2.53, -1.58, -1.0, 0.0, 1.4, 2.84, 3.72, 4.77, 4.47, 5.2, 6.0, 4.98, 4.6, 4.15, 4.15, 4.41, 4.47, 4.92, 4.43, 3.82, 3.39, 4.41, 6.14, 7.63, 9.2, 10.9, 13.15, 14.5, 14.76, 10.55, 5.2, 0.82, 1.63, 2.4, 2.44, 3.63, 5.21, 7.06, 7.81, 8.05, 8.4, 8.0, 7.2, 5.72, 4.02, 5.06, 6.32, 7.6, 8.58, 10.32, 11.27, 11.03, 10.28, 9.97, 9.46, 8.8, 9.96, 11.23, 12.74, 12.47, 10.28, -7.15, -5.81, -4.0, -3.2, 3.13, -0.0, 1.9, 3.47, 4.85, 7.47, 8.3, 9.3, 9.92, 10.66, 11.02, 9.74, 5.6, 7.18, 7.18, 7.56, 7.56, 7.27, 7.27, 6.63, 6.93, 6.27, 5.9, 5.0, 3.22, 1.8, 1.2, 0.0, 2.68, 1.2, 0.0, -0.65, -2.51, -2.41, -2.15, -1.0, 0.0, 3.2, 3.72, 3.35, 3.39, 3.13, 2.53, 3.6, 3.2, 2.8, 2.97, 3.04, 3.58, 4.47, 4.87, 4.87, 4.24, 4.0, 5.81, 7.44, 8.31, 9.4, 12.01, 13.67, 14.42, 12.39, 4.66, 0.96, 1.45, 1.55, 2.18, 2.82, 4.12, 5.89, 7.06, 8.43, 8.8, 8.8, 8.17, 6.99, 5.06, 5.06, 5.37, 6.91, 7.58, 8.21, 9.03, 10.55, 10.73, 10.5, 9.97, 8.48, 8.37, 9.49, 11.23, 12.74, 12.47, 10.28, -7.15, -5.81, -4.0, -3.2, 3.13, -0.0, 1.9, 3.47, 4.85, 7.47, 8.3, 9.3, 9.92, 10.66, 11.02, 9.74, 5.6, 7.18, 7.18, 6.9, 6.9, 6.9, 6.9, 6.63, 6.63, 6.27, 6.0, 4.96, 4.61, 2.41, 1.74, 1.9, 2.0, 2.54, 1.26, 0.0, -1.33, -2.48, -2.53, -1.49, -0.87, 1.13, 3.72, 3.82, 3.13, 2.68, -0.0, 0.0, 0.0, 0.0, 2.68, 2.68, 3.58, 4.43, 5.32, 6.07, 5.43, 5.72, 7.27, 8.66, 10.05, 11.14, 11.8, 13.41, 12.56, 5.06, 1.23, 1.4, 1.49, 2.26, 2.26, 2.9, 4.26, 6.01, 7.41, 8.43, 8.95, 8.95, 7.76, 5.84, 5.15, 5.24, 6.01, 7.06, 8.12, 8.47, 9.04, 10.04, 11.02, 11.54, 10.47, 7.94, 7.08, 8.8, 12.58, 13.78, 13.38, 10.28, 8.05, -7.6, -5.6, -3.6, -3.13, 1.4, 2.6, 4.02, 6.98, 9.74, 9.67, 9.3, 9.3, 9.67, 9.96, 6.11, 4.02, 6.9, 6.9, 6.9, 6.9, 6.9, 6.63, 6.63, 6.35, 5.98, 6.0, 5.34, 4.96, 2.99, 1.49, 1.6, 2.21, 2.98, 2.84, 1.61, 0.0, -1.27, -1.66, -1.99, -1.35, -0.66, 0.0, 2.8, 3.58, 3.58, 3.13, 0.0, -1.33, -2.3, -0.98, 1.6, 3.58, 5.4, 6.8, 7.67, 8.03, 8.85, 9.95, 10.05, 10.05, 10.05, 10.89, 9.95, 5.69, 4.74, 2.26, 2.6, 2.26, 3.0, 3.2, 4.03, 5.1, 6.73, 7.41, 8.82, 9.36, 8.72, 6.82, 5.37, 4.42, 5.36, 6.64, 6.95, 7.27, 8.22, 9.56, 11.28, 13.02, 13.99, 12.14, 8.85, 5.73, 6.55, 11.6, 15.18, 13.41, 8.49, 5.2, -7.15, -5.2, -3.58, -3.58, 3.39, 4.02, 6.02, 9.74, 10.87, 9.9, 9.04, 8.93, 8.38, 4.38, 4.47, 4.73, 6.61, 6.9, 6.9, 6.9, 6.63, 6.63, 6.63, 6.35, 5.98, 5.72, 5.34, 4.96, 2.6, 2.53, 2.3, 2.53, 2.41, 3.58, 1.88, 0.59, -0.79, -1.49, -1.49, -1.66, -2.0, -1.6, 0.0, 0.0, 2.8, 3.47, 2.21, -0.81, -3.09, -3.06, 0.0, 2.7, 3.87, 6.71, 8.66, 9.22, 9.22, 8.37, 7.64, 7.67, 8.63, 9.2, 7.47, 6.79, 4.65, 3.79, 3.0, 3.33, 3.33, 3.77, 4.83, 5.89, 6.73, 7.81, 8.67, 9.2, 8.4, 5.46, 4.16, 4.26, 5.76, 6.53, 6.95, 6.24, 7.18, 8.93, 11.66, 14.16, 14.71, 13.77, 11.76, 8.05, 4.09, 7.98, 11.15, 12.52, 4.85, 3.82, 0.0, -6.64, -3.82, -1.6, 3.74, 7.53, 10.4, 11.28, 10.66, 9.27, 8.07, 5.81, -0.98, 2.15, 4.92, 4.73, 6.61, 6.61, 6.9, 6.9, 6.63, 6.34, 6.34, 6.08, 5.98, 5.72, 5.08, 4.69, 3.22, 2.53, 2.53, 2.76, 2.76, 2.76, 3.22, 0.89, -1.96, -2.8, -2.8, -2.3, -2.07, -1.49, -1.49, 0.0, 0.79, 1.8, 3.22, 2.23, 0.0, -0.85, 0.0, 1.48, 2.44, 6.65, 8.61, 7.44, 4.6, 4.22, 4.09, 7.71, 10.93, 11.4, 8.91, 7.03, 5.77, 4.01, 3.63, 4.01, 4.16, 4.16, 4.95, 6.11, 6.79, 7.42, 8.55, 10.01, 7.98, 4.46, 4.16, 4.46, 5.49, 6.53, 6.95, 6.32, 6.01, 8.42, 11.36, 12.87, 13.02, 13.99, 14.47, 13.55, 8.85, 3.83, 4.47, 9.34, 4.38, 3.9, 4.29, -2.82, -3.07, 0.0, 4.56, 9.3, 11.64, 10.63, 9.04, 10.01, 6.64, -2.84, -1.2, 3.13, 4.92, 4.0, 6.61, 6.61, 6.61, 6.61, 6.34, 6.34, 6.34, 6.08, 5.7, 5.06, 5.08, 4.0, 3.22, 2.3, 3.22, 2.4, 2.6, 3.72, 4.16, 3.55, 0.63, -2.2, -3.55, -4.0, -2.98, -1.96, -2.21, -1.0, 0.0, 0.0, 0.0, 2.53, 3.2, 3.49, 1.6, 1.45, 2.44, 5.6, 6.97, 4.71, 2.99, 2.06, 4.18, 8.61, 10.99, 6.26, 5.82, 6.39, 5.69, 5.06, 4.19, 4.01, 4.65, 4.65, 5.06, 5.46, 6.07, 6.25, 7.89, 9.33, 7.06, 3.84, 3.91, 3.72, 3.55, 5.82, 7.4, 7.28, 6.8, 8.48, 10.41, 11.28, 11.61, 14.06, 14.99, 15.41, 13.72, 8.41, 5.2, 9.49, 7.6, 6.0, 5.37, 3.6, 0.0, 1.36, 5.2, 8.66, 10.18, 9.56, 8.53, 8.16, 4.8, -2.84, 2.21, 3.53, 4.47, 3.45, 6.61, 6.61, 6.61, 6.61, 6.34, 6.34, 6.34, 5.95, 5.7, 5.29, 4.63, 3.97, 2.64, 2.6, 4.19, 2.88, 3.64, 3.9, 3.72, 4.46, 3.58, 3.32, 2.6, 0.0, -2.31, -2.04, -1.09, -2.04, -3.17, -3.2, -2.16, -1.41, 0.0, 5.36, 5.46, 3.95, 2.25, 3.16, 5.69, 5.2, 2.53, 2.6, 4.2, 4.21, 1.24, 0.7, 2.11, 5.37, 6.01, 5.15, 3.79, 3.64, 4.65, 5.06, 5.43, 5.72, 6.32, 7.2, 8.4, 8.4, 6.79, 3.45, 2.84, 3.22, 2.99, 4.47, 8.21, 8.37, 6.61, 7.15, 8.89, 10.24, 11.18, 12.05, 13.39, 12.52, 12.24, 10.8, 11.68, 14.06, 15.63, 11.61, 7.02, 5.13, 4.2, 4.23, 5.47, 7.54, 8.76, 8.53, 6.71, 1.99, -3.16, -1.8, 4.02, 4.87, 4.92, 3.74, 6.61, 6.61, 6.61, 6.61, 6.61, 6.34, 6.34, 6.34, 5.69, 5.69, 5.02, 4.05, 3.25, 2.49, 2.57, 3.27, 4.12, 3.91, 3.35, 2.5, 3.13, 5.26, 6.45, 4.38, 1.23, 0.0, -0.95, -3.77, -5.2, -4.71, -2.49, -1.25, 0.0, 2.48, 4.33, 4.4, 3.77, 3.08, 3.2, 2.21, 1.6, 1.2, 0.95, 0.89, -0.0, 0.59, 1.4, 2.41, 3.38, 4.03, 4.21, 3.79, 4.56, 5.37, 6.06, 6.35, 7.67, 8.55, 9.08, 8.91, 7.71, 4.66, 3.16, 2.2, 1.99, 5.06, 8.21, 8.48, 5.73, 5.81, 7.15, 8.94, 11.15, 11.99, 11.15, 9.83, 8.9, 10.16, 12.86, 15.13, 16.46, 14.3, 9.13, 5.0, 5.04, 4.87, 5.39, 7.08, 7.59, 6.95, 3.63, -2.2, -1.98, -0.0, 4.47, 5.75, 4.92, 3.58, 6.61, 6.61, 6.61, 6.61, 6.61, 6.61, 6.33, 6.33, 5.92, 5.67, 5.86, 5.83, 5.17, 3.44, 2.53, 2.37, 3.34, 2.54, 2.24, 1.2, 2.6, 4.6, 6.64, 6.28, 4.14, 1.18, -0.73, -4.22, -6.45, -3.21, 0.0, 1.08, 0.0, 0.0, 0.0, 1.28, 4.44, 2.48, 0.89, -0.0, -0.0, 1.79, -0.0, -0.6, -0.0, 0.57, 0.57, 1.2, 1.27, 1.47, 2.51, 4.42, 5.37, 6.08, 6.35, 7.32, 8.63, 9.6, 10.25, 10.02, 8.82, 6.16, 4.83, 1.98, 2.64, 5.06, 8.4, 8.82, 5.09, 3.51, 5.81, 9.39, 11.6, 11.6, 10.73, 9.39, 8.46, 8.8, 11.08, 13.84, 16.09, 16.54, 13.41, 6.8, 3.32, 3.47, 4.61, 5.64, 5.69, 4.46, 4.8, -0.0, 3.13, 2.53, 4.57, 4.73, 4.73, 3.82, 6.61, 6.61, 6.61, 6.61, 6.61, 6.33, 6.33, 6.33, 6.31, 6.31, 6.53, 7.16, 6.92, 5.83, 4.01, 3.87, 4.13, 2.98, 1.79, 1.21, 0.83, 0.92, 2.72, 3.69, 3.47, 0.0, 0.0, -0.79, -3.0, -2.23, 0.0, 0.0, -0.57, -0.71, -0.61, 0.0, 3.17, 1.26, -1.58, 1.79, 0.0, 0.0, 1.34, -0.0, -0.0, -0.0, 0.71, 1.2, 1.13, 0.66, 1.8, 3.79, 4.84, 6.07, 6.7, 8.24, 10.15, 11.23, 11.52, 11.15, 8.36, 6.18, 3.17, 0.84, 2.54, 5.59, 8.3, 8.24, 6.8, 5.16, 7.15, 9.83, 11.15, 10.28, 9.83, 10.26, 9.15, 7.89, 9.08, 11.62, 13.88, 15.5, 15.2, 12.96, 4.98, 1.7, 2.4, 4.07, 4.43, 3.48, 2.68, 1.8, 1.08, 1.08, 3.49, 4.66, 4.27, 3.6, 6.61, 6.61, 6.61, 6.61, 6.33, 6.33, 6.58, 6.58, 6.31, 6.96, 6.94, 6.92, 7.57, 7.85, 7.61, 6.34, 5.34, 4.57, 5.03, 5.04, 3.68, 1.94, 0.61, 0.0, 0.0, 0.0, 0.0, 0.0, 0.45, -1.0, -1.4, -1.79, -1.58, -0.8, 0.0, 0.0, -1.33, -2.6, -2.54, -2.6, -2.0, -1.79, -0.0, -0.0, -0.0, -0.0, -0.0, 1.26, 1.9, 1.9, 2.68, 3.13, 3.58, 4.43, 5.64, 7.89, 10.16, 12.05, 12.52, 9.81, 5.21, 2.83, 1.84, -0.0, 2.33, 6.32, 8.93, 9.9, 9.6, 9.33, 9.36, 9.83, 9.39, 7.6, 7.6, 9.72, 9.58, 8.14, 8.55, 10.35, 11.2, 11.66, 12.42, 14.73, 10.69, 7.01, 3.68, 2.73, 3.07, 2.95, 1.83, 0.7, 0.0, 0.73, 2.48, 5.09, 3.72, 2.86, 6.61, 6.61, 6.61, 6.33, 6.33, 6.58, 6.58, 6.7, 6.96, 7.22, 6.94, 7.32, 7.57, 8.22, 8.58, 7.59, 6.28, 6.28, 6.95, 8.19, 9.01, 8.8, 7.56, 5.32, 4.92, 4.44, 3.98, 2.17, -0.0, -2.68, -2.68, -2.12, -1.86, -1.6, -0.89, -1.7, -2.68, -3.07, -3.39, -3.97, -3.13, -2.4, -1.2, -0.61, -0.65, -0.71, -0.0, 1.2, 1.86, 2.21, 1.84, 1.6, 2.73, 4.29, 6.32, 6.64, 6.99, 10.23, 11.4, 4.02, -0.0, -0.0, -0.0, -0.0, 3.6, 5.75, 6.0, 9.2, 10.27, 10.75, 9.83, 8.91, 8.19, 8.01, 8.49, 9.58, 9.83, 8.55, 7.54, 7.28, 5.46, 6.4, 10.52, 12.8, 12.49, 12.48, 10.47, 4.47, 2.0, 2.0, 0.0, -0.7, -0.57, 0.63, 3.55, 4.43, 2.53, 1.98, 6.61, 6.61, 6.61, 6.33, 6.58, 6.58, 6.97, 6.96, 6.96, 7.22, 7.33, 7.59, 7.96, 8.59, 8.59, 8.53, 7.86, 7.51, 8.08, 9.21, 10.91, 11.56, 12.02, 11.62, 11.18, 10.28, 8.94, 6.26, 1.79, -0.8, -3.07, -2.17, -1.79, -1.79, -1.34, -2.24, -3.13, -3.13, -3.58, -3.58, -3.53, -3.32, -2.23, -1.0, -1.4, -0.0, 1.34, 0.6, 2.15, 1.66, 0.81, 2.06, 4.48, 5.36, 4.48, 3.53, 2.04, 5.37, 8.99, 1.27, -2.07, -0.88, -0.0, -0.0, 3.48, 3.35, 3.58, 5.81, 9.83, 7.71, 8.42, 9.05, 9.08, 8.91, 8.91, 9.4, 7.98, 5.16, 4.24, 4.38, 4.0, 4.12, 8.18, 10.8, 12.18, 13.32, 12.94, 9.2, 0.0, 4.92, -4.02, -1.4, -0.66, 0.76, 2.04, 1.27, 0.0, 0.0, 6.61, 6.61, 6.61, 6.33, 6.58, 6.97, 7.24, 6.96, 6.96, 7.6, 7.33, 7.59, 8.23, 8.23, 8.59, 8.87, 8.85, 8.5, 8.73, 9.76, 11.08, 12.11, 12.94, 13.65, 13.29, 12.91, 11.57, 8.87, 5.7, 2.54, 0.89, -1.6, -1.34, -1.34, -1.79, -2.24, -1.79, -1.79, -2.54, -3.32, -3.32, -3.39, -3.13, -2.24, -2.8, -1.4, -0.0, 1.34, 0.95, 1.4, 1.66, 4.22, 3.48, 1.9, 1.26, 0.7, 0.0, 3.51, 6.35, 1.6, -2.23, -2.54, -1.58, 1.79, 0.0, 0.7, 2.99, 5.49, 2.68, 2.0, 5.06, 9.08, 10.49, 10.28, 8.38, 6.55, 4.02, 3.51, 4.38, 5.36, 6.14, 5.75, 5.95, 7.85, 7.46, 11.2, 13.01, 11.0, 8.06, 7.15, 6.71, -3.16, -1.13, 0.0, 0.0, -1.8, 0.0, 0.0, 6.61, 6.61, 6.61, 6.33, 6.58, 6.97, 7.24, 6.96, 6.96, 7.6, 7.6, 7.59, 7.96, 8.23, 8.59, 8.87, 9.48, 9.13, 9.37, 9.86, 11.08, 11.92, 13.21, 13.84, 14.09, 13.8, 12.5, 11.61, 9.76, 7.51, 5.67, 3.07, 1.26, 0.89, 2.24, 1.79, -0.0, -0.6, -1.58, -3.2, -3.32, -1.86, -1.9, -2.8, -2.53, -2.84, -2.84, -2.8, -0.0, 0.45, 0.8, 1.86, 1.79, 0.8, -0.0, 1.34, 1.6, 2.76, 2.6, 0.89, -1.34, -1.34, -0.45, 0.45, 0.0, 0.7, 1.3, 0.0, -1.0, 1.6, 4.73, 8.94, 11.15, 10.16, 6.11, 3.58, 3.16, 4.11, 4.29, 5.4, 6.94, 7.37, 7.06, 6.99, 5.75, 3.49, 8.8, 9.49, 8.49, 7.6, 8.49, -1.98, -1.2, -0.53, -0.7, 0.0, 0.0, 0.0, 6.61, 6.61, 6.61, 6.58, 6.97, 6.97, 7.24, 7.24, 7.33, 7.6, 7.6, 8.24, 8.24, 8.24, 8.58, 8.87, 9.48, 10.06, 9.66, 10.04, 10.68, 12.11, 13.21, 13.54, 14.26, 14.75, 14.74, 14.29, 13.36, 11.84, 9.81, 7.51, 5.09, 2.0, 0.63, 1.34, -0.95, -1.6, -1.58, -2.12, -2.8, -1.86, -2.53, -1.9, -2.53, -2.53, -1.6, -1.4, -1.4, -0.0, -0.0, -0.0, -0.0, -0.0, 2.68, 3.13, 4.92, 3.58, -0.0, 3.58, 3.58, 3.13, -1.9, -1.58, 2.24, 1.2, 0.0, -2.15, -0.71, 2.6, 7.31, 8.93, 9.74, 7.6, 3.53, 1.13, 0.96, 3.45, 3.91, 4.43, 5.36, 7.37, 7.89, 7.74, 8.17, 4.98, 3.14, 4.02, 4.92, 7.63, 7.67, 2.4, -1.4, 0.0, 1.6, 2.53, 2.98, 2.98, 6.61, 6.61, 6.61, 6.87, 6.97, 6.97, 7.24, 7.24, 7.33, 7.33, 7.6, 7.96, 8.24, 8.24, 8.24, 8.87, 9.48, 9.77, 9.94, 10.3, 11.41, 12.33, 12.6, 12.75, 13.85, 15.2, 16.05, 15.54, 15.01, 13.8, 11.95, 10.0, 7.87, 5.6, 3.6, 1.34, -0.45, -1.79, -1.79, -2.24, -2.68, -2.54, -2.54, -2.0, -1.9, -2.21, -0.0, -0.0, -0.0, -0.0, -0.0, -0.0, -0.0, -0.0, -0.0, 4.02, 3.16, 3.79, 4.11, 5.36, 4.92, 4.47, -0.0, -2.53, -3.16, -0.57, 1.79, 0.0, 0.0, 3.11, 6.17, 5.94, 5.06, 1.84, -2.24, -2.21, -0.0, 2.76, 3.91, 4.54, 4.6, 6.17, 7.06, 8.79, 7.2, 3.16, 2.07, 3.04, 4.4, 6.64, 7.81, 5.01, 1.13, 1.0, 2.21, 3.2, 2.91, 2.91, 6.61, 6.61, 6.61, 7.26, 7.26, 6.97, 7.24, 7.61, 7.61, 7.61, 7.6, 7.96, 7.96, 7.96, 7.96, 7.73, 8.24, 8.85, 8.73, 10.16, 12.33, 13.53, 12.28, 10.68, 11.11, 14.31, 13.37, 13.91, 13.28, 11.87, 11.17, 10.04, 9.02, 7.44, 5.58, 3.72, 3.2, -3.58, -2.68, -2.68, -2.68, -2.68, 2.68, 1.79, -0.0, -0.0, -0.0, -0.0, -0.0, -0.0, -0.0, -0.0, -0.0, -0.0, -0.0, 2.6, 3.79, 5.81, 5.81, 5.36, 4.47, 4.02, -0.0, -1.24, -2.68, -2.21, -0.0, 1.88, 3.55, 4.21, 4.74, 7.4, 10.41, 10.14, 5.36, -1.58, -0.0, 2.98, 5.51, 5.51, 5.81, 7.31, 8.15, 7.87, 7.47, 5.2, 4.26, 2.73, 6.7, 6.0, 4.46, 3.79, 1.84, 1.0, 1.88, 2.86, 2.91, 2.91, 6.61, 6.61, 6.98, 7.26, 7.26, 7.26, 6.97, 7.61, 7.61, 7.61, 7.61, 8.24, 8.24, 7.96, 8.24, 7.95, 7.61, 6.98, 6.42, 8.3, 11.88, 13.75, 12.45, 10.18, 10.84, 11.88, 12.3, 12.24, 12.24, 10.41, 8.87, 7.91, 7.9, 7.15, 6.28, 5.36, 4.54, 5.2, 5.81, 4.92, 4.47, 4.47, 3.6, 3.6, 1.6, -0.0, -0.0, -0.0, -0.0, -0.0, -0.0, -1.27, -0.0, -0.0, -0.0, 2.23, 5.95, 4.92, 3.39, 4.0, 3.58, 3.13, -1.9, -2.84, -1.74, -2.23, -2.0, 1.79, 3.58, 5.77, 8.14, 12.09, 16.62, 18.67, 15.15, 8.4, 5.69, 6.01, 6.88, 6.2, 6.64, 7.81, 8.0, 6.91, 6.01, 3.55, 1.6, 1.9, 2.53, 2.84, 2.07, 4.65, 2.88, 0.66, 0.59, 1.84, 3.14, 3.14, 6.98, 6.98, 6.98, 7.26, 7.26, 7.26, 7.61, 7.61, 7.61, 7.61, 7.61, 7.95, 8.24, 8.24, 8.58, 8.24, 7.61, 6.97, 7.6, 8.56, 11.76, 12.27, 11.99, 11.38, 11.7, 12.32, 11.66, 11.36, 9.8, 7.64, 5.89, 5.64, 6.31, 6.57, 5.65, 5.01, 4.65, 5.2, 6.07, 6.26, 5.81, 5.51, 5.94, 5.21, 3.79, 3.48, 2.53, -0.0, -0.0, -0.0, -1.4, -1.8, -1.41, -0.0, -0.0, 1.98, 4.43, 5.21, 3.48, 0.0, 2.24, -2.0, -2.53, -3.2, -2.0, -2.97, -2.4, -0.0, 2.41, 5.3, 6.88, 10.55, 14.42, 16.34, 15.34, 10.25, 7.49, 7.62, 6.17, 5.84, 6.16, 6.94, 7.81, 6.94, 6.36, 3.6, 1.4, 0.7, 4.15, 3.95, 2.53, 4.29, 3.79, 0.0, 0.0, 1.11, 2.48, 2.48, 6.98, 6.98, 6.98, 6.98, 7.26, 7.26, 7.61, 7.61, 7.9, 7.61, 7.61, 7.95, 8.24, 8.24, 8.24, 8.24, 8.24, 8.24, 9.5, 11.39, 11.7, 10.75, 10.13, 10.75, 12.29, 13.09, 12.37, 10.51, 7.81, 6.13, 4.74, 4.43, 4.74, 5.01, 5.59, 5.49, 5.21, 4.4, 5.59, 6.26, 6.26, 6.07, 5.6, 5.21, 4.84, 3.16, 3.16, 3.58, -0.0, -0.0, -1.4, -1.8, -0.0, -0.0, -0.0, 1.84, 1.41, -2.4, -6.26, -2.24, -2.12, -1.86, -1.24, -1.26, -2.4, -2.21, -2.53, -1.4, -0.0, 0.7, 1.7, 6.4, 11.5, 11.71, 4.0, 5.9, 7.7, 7.2, 5.67, 4.92, 5.69, 5.82, 6.45, 6.2, 6.71, 4.92, 3.82, 3.58, 4.3, 4.92, 4.27, 3.78, 1.94, 0.0, -0.57, 0.57, 2.0, 2.0, 6.98, 6.98, 6.98, 6.98, 7.26, 7.61, 7.61, 7.61, 7.9, 7.9, 7.9, 7.95, 8.24, 8.24, 8.24, 8.87, 8.58, 9.5, 10.45, 12.27, 12.51, 10.88, 9.94, 10.01, 11.58, 13.2, 13.23, 12.11, 10.05, 9.06, 7.81, 6.16, 4.84, 4.37, 4.29, 4.65, 4.55, 4.4, 4.77, 5.75, 6.26, 6.17, 5.81, 5.6, 4.29, 3.48, 3.48, 3.58, -0.0, -0.0, -0.0, -0.0, -0.0, -0.0, -0.0, -0.0, -0.0, -3.48, -4.8, -2.53, -1.49, -1.24, -0.57, -0.0, -1.13, -1.41, -0.0, -0.0, -0.0, -0.57, -0.95, 1.34, 9.81, 3.58, 0.0, 2.21, 5.45, 6.54, 5.67, 4.38, 4.25, 5.15, 4.89, 4.8, 5.2, 4.66, 4.15, 3.49, 6.11, 7.64, 6.0, 3.15, 0.66, -1.13, -1.11, 0.63, 1.76, 1.76, 6.98, 6.98, 6.98, 6.98, 6.98, 7.61, 7.61, 7.61, 7.61, 7.9, 8.24, 8.24, 7.95, 8.24, 8.56, 8.87, 9.19, 10.12, 10.75, 11.92, 12.09, 11.99, 10.96, 11.06, 11.34, 12.16, 12.95, 12.51, 11.95, 11.45, 10.37, 8.71, 7.28, 6.28, 5.75, 5.6, 5.44, 5.02, 5.2, 5.32, 5.81, 6.26, 6.36, 5.94, 4.98, 3.93, 4.8, 4.47, 3.2, 2.84, 1.8, -0.0, -0.0, -0.0, -0.0, -0.0, -0.0, -1.58, -2.68, -0.0, -0.0, -1.58, -0.0, -0.0, -1.08, -1.19, -0.0, -0.0, -0.0, -0.0, -0.6, 6.32, 10.02, 5.36, 2.0, 0.0, 2.46, 3.96, 5.31, 4.81, 3.96, 3.65, 4.5, 4.68, 4.22, 3.97, 4.58, 4.74, 5.38, 5.06, 4.43, 2.4, 0.0, -0.79, -0.59, 0.55, 1.19, 1.19, 6.98, 6.98, 6.98, 6.98, 7.27, 7.32, 7.61, 7.61, 7.61, 7.9, 8.24, 8.24, 8.24, 8.85, 8.56, 8.87, 9.19, 10.12, 10.72, 11.28, 11.8, 12.09, 12.16, 12.03, 12.28, 12.28, 12.28, 12.51, 12.64, 12.45, 11.94, 10.72, 9.64, 8.71, 8.36, 7.89, 7.45, 7.11, 6.66, 6.26, 6.71, 6.65, 6.94, 6.45, 5.75, 5.51, 5.51, 5.29, 4.85, 4.57, 3.58, 2.2, 1.8, -0.0, -0.0, -0.0, -0.0, -0.6, -0.89, 2.68, 3.58, 2.24, 2.68, -0.99, -1.08, -0.0, -0.0, -0.0, -1.6, 0.0, 1.6, 5.09, 10.52, 10.28, 9.8, 7.15, 3.13, 2.15, 4.6, 5.99, 4.98, 5.18, 5.0, 4.99, 2.83, 2.67, 3.27, 3.91, 1.94, 0.98, 5.81, 8.05, 0.0, 1.19, 0.66, 1.19, 1.23, 1.23, 6.98, 6.98, 6.98, 7.27, 7.6, 7.6, 7.91, 7.91, 7.61, 7.9, 8.24, 8.24, 8.24, 8.85, 8.56, 9.17, 9.77, 10.09, 10.69, 10.94, 11.58, 11.8, 12.65, 12.7, 12.95, 12.79, 12.11, 11.6, 12.23, 11.72, 11.54, 11.51, 10.77, 10.01, 9.67, 8.85, 8.39, 8.46, 8.05, 7.6, 7.6, 7.56, 7.56, 7.42, 6.94, 6.51, 6.51, 6.07, 6.21, 5.59, 5.09, 4.4, 4.0, 1.6, 1.6, -0.0, -0.0, -0.0, -0.0, 0.0, 0.0, 3.58, 2.24, -1.2, -0.85, -1.13, -0.98, -0.87, -1.6, 0.0, 1.16, 4.43, 7.71, 11.62, 12.77, 11.62, 11.09, 6.71, 3.16, 4.0, 5.8, 7.36, 6.9, 4.8, 1.72, 1.35, 2.47, 0.79, -2.21, -3.9, -2.84, 7.15, 7.07, 5.36, 3.63, 2.0, 1.11, 1.11, 6.98, 6.98, 6.98, 7.6, 7.6, 7.6, 7.91, 7.91, 7.91, 7.91, 8.24, 8.24, 8.24, 8.85, 8.85, 9.46, 10.06, 10.09, 10.65, 11.23, 11.23, 12.09, 12.27, 12.7, 12.95, 12.79, 12.51, 11.82, 12.04, 11.54, 11.12, 10.91, 10.42, 10.6, 10.34, 10.01, 9.68, 9.77, 9.32, 8.92, 8.94, 8.49, 8.49, 7.89, 7.45, 7.45, 7.45, 7.01, 6.66, 6.21, 5.75, 4.66, 4.0, 2.98, 0.8, -0.0, -0.0, -1.0, -0.0, 0.89, 0.0, 1.6, 3.58, -0.0, -0.0, -0.0, -1.0, -1.2, -0.89, 0.0, 1.16, 3.07, 6.44, 8.63, 9.36, 10.27, 11.72, 8.28, 3.45, 2.12, 5.32, 7.93, 7.93, 5.95, 1.18, 1.1, 0.0, -3.2, -4.02, -3.2, -1.27, 0.63, 5.69, 6.63, 4.74, 3.48, 2.86, 2.86, 7.32, 7.32, 7.6, 7.6, 7.6, 7.6, 7.6, 7.91, 7.91, 7.91, 8.53, 8.53, 8.53, 8.53, 9.13, 9.46, 9.72, 10.3, 10.65, 10.88, 11.52, 11.72, 11.72, 12.16, 12.95, 12.79, 12.62, 12.33, 12.11, 11.62, 11.39, 11.08, 10.66, 10.18, 9.7, 9.86, 10.01, 9.57, 9.23, 9.32, 8.92, 8.94, 8.49, 8.46, 8.02, 7.94, 8.46, 7.57, 7.12, 6.71, 5.77, 5.29, 4.38, 3.9, 2.21, 0.95, -0.0, -0.0, -0.6, -0.6, 1.79, 1.4, 4.02, 1.2, -0.0, -0.0, -1.6, -1.34, -1.2, 0.0, 1.2, 2.84, 5.43, 5.09, 4.0, 7.12, 9.36, 5.81, 2.91, 0.73, 3.6, 7.79, 9.89, 7.44, 5.36, -1.84, -3.58, -3.2, -2.98, -1.84, -0.63, 0.0, 2.4, 5.15, 5.15, 4.74, 4.11, 4.11, 7.32, 7.32, 7.6, 7.6, 7.6, 7.6, 7.6, 7.91, 7.91, 7.91, 8.22, 8.53, 8.82, 8.82, 9.13, 9.13, 9.72, 10.3, 10.59, 11.16, 11.16, 11.35, 11.62, 12.16, 12.42, 12.28, 12.62, 12.33, 12.11, 12.3, 11.81, 11.39, 11.08, 10.66, 10.34, 9.86, 9.86, 9.57, 9.67, 9.67, 9.31, 8.92, 8.47, 7.6, 7.15, 7.48, 8.38, 8.05, 7.6, 6.71, 5.81, 5.36, 4.77, 4.24, 3.2, 2.21, 1.34, -0.0, -0.6, -0.6, -1.34, 2.68, 3.13, -0.0, -0.0, -0.0, -1.9, -1.2, -2.24, -0.8, 1.24, 3.83, 7.35, 6.06, 6.31, 7.52, 7.06, 4.0, 1.86, 1.74, 2.41, 6.87, 9.22, 9.8, 6.64, 2.4, -2.6, -2.07, -1.35, -0.7, -0.67, 0.0, 1.32, 3.0, 4.03, 5.3, 4.71, 4.71, 7.6, 7.6, 7.6, 7.6, 7.6, 7.6, 7.6, 7.6, 7.91, 7.91, 8.22, 8.22, 8.82, 8.82, 9.08, 9.42, 10.01, 10.01, 10.59, 10.8, 11.16, 11.44, 11.24, 11.88, 11.88, 12.28, 12.11, 12.33, 12.11, 12.3, 12.3, 11.87, 11.56, 11.08, 10.81, 10.34, 10.01, 10.01, 9.97, 9.67, 9.64, 9.29, 8.84, 8.01, 7.15, 7.6, 8.49, 7.15, 5.31, 4.92, 4.92, 4.92, 4.66, 4.0, 3.6, 2.53, 1.9, -0.0, -0.6, -1.26, -1.6, 2.68, 1.79, -0.89, -0.0, -0.0, -0.0, -0.0, -1.79, -1.0, 0.61, 3.84, 8.36, 10.45, 9.62, 9.8, 8.9, 4.11, 2.5, 2.12, 2.86, 5.9, 8.1, 9.73, 9.56, 5.58, 1.8, 0.0, 0.0, -0.67, -0.63, 0.0, 0.65, 2.18, 3.33, 4.56, 4.94, 4.94, 7.6, 7.6, 7.6, 7.6, 7.6, 7.6, 7.6, 7.6, 7.6, 8.22, 8.22, 8.22, 8.5, 8.82, 9.08, 9.42, 9.66, 10.01, 10.23, 10.87, 11.07, 11.07, 11.34, 11.5, 11.5, 11.75, 11.99, 11.92, 12.3, 12.78, 12.78, 12.3, 11.81, 11.56, 10.66, 10.81, 10.34, 10.04, 10.01, 10.11, 9.64, 9.75, 9.29, 8.38, 7.48, 7.97, 8.43, 6.67, 4.02, 3.58, 3.58, 3.2, 3.6, 3.16, 2.84, 2.53, 2.21, -0.0, -0.8, -1.26, -1.79, -2.24, -0.89, -0.8, -0.0, -0.0, 0.45, 0.0, 2.0, 2.21, 1.27, 1.27, 4.24, 10.73, 13.32, 13.75, 11.9, 8.68, 4.09, 3.6, 2.79, 2.98, 6.36, 8.73, 9.48, 8.87, 7.27, 3.79, 1.55, 0.0, -0.61, -0.61, 0.0, 1.16, 2.69, 3.51, 3.47, 3.47, 7.6, 7.6, 7.6, 7.6, 7.6, 7.6, 7.6, 7.6, 8.19, 8.19, 8.52, 8.52, 8.52, 8.82, 9.08, 9.08, 9.94, 9.94, 10.51, 10.51, 10.96, 10.96, 11.34, 11.5, 11.75, 11.36, 11.6, 11.08, 11.21, 11.81, 12.6, 12.3, 11.87, 11.56, 11.08, 10.81, 10.34, 10.47, 10.04, 10.01, 9.67, 9.64, 9.29, 8.84, 8.67, 9.11, 9.15, 8.02, 6.26, 4.92, 4.47, 3.51, 3.47, 2.98, 2.21, -0.0, -0.0, -0.0, -1.58, -1.86, -1.34, -1.2, -1.34, -0.95, -0.57, -0.0, -0.0, 0.8, 2.15, 3.22, 1.84, 0.0, 0.76, 7.08, 13.86, 15.12, 12.79, 9.08, 6.7, 7.46, 6.8, 4.22, 3.48, 7.97, 9.9, 10.47, 10.41, 9.14, 5.21, 3.49, 0.0, -2.21, 0.0, 1.98, 2.04, 3.33, 3.97, 3.97, 7.6, 7.6, 7.6, 7.6, 7.6, 7.6, 7.6, 7.9, 8.19, 8.19, 8.19, 8.52, 8.52, 8.78, 8.78, 9.37, 9.59, 9.94, 10.15, 10.41, 10.79, 10.96, 10.96, 10.96, 11.22, 11.22, 11.47, 11.6, 11.6, 11.62, 11.12, 11.39, 11.39, 11.08, 11.08, 10.66, 10.81, 10.34, 10.47, 10.01, 10.13, 9.67, 9.64, 9.18, 9.18, 9.15, 9.72, 8.91, 8.05, 7.15, 6.26, 5.36, 4.47, 3.95, 3.47, 2.8, 1.9, -0.0, -1.58, -2.0, -2.24, -1.34, -2.24, -0.8, -0.54, -0.65, -0.71, 0.89, 1.9, 2.23, 1.26, 0.0, 0.0, 4.11, 12.14, 15.12, 9.24, 2.15, 2.51, 5.31, 8.77, 9.83, 8.94, 7.5, 8.8, 10.09, 10.91, 10.52, 8.0, 6.4, 5.09, -0.0, -1.2, 2.53, 4.92, 5.75, 6.36, 6.36, 6.98, 6.98, 7.6, 7.6, 7.6, 7.6, 7.6, 7.9, 8.19, 8.19, 8.19, 8.19, 8.52, 8.78, 8.78, 9.37, 9.37, 9.59, 10.23, 10.41, 10.41, 10.96, 10.96, 11.22, 11.22, 11.22, 11.22, 11.36, 11.75, 11.7, 11.21, 10.91, 11.08, 11.08, 10.66, 10.66, 10.77, 10.34, 10.34, 10.01, 10.01, 9.67, 9.67, 9.64, 9.18, 9.62, 9.74, 9.28, 8.91, 8.46, 7.6, 6.71, 6.26, 5.81, 4.92, 4.47, 3.39, 2.21, -1.58, -1.58, -1.79, -1.79, -0.0, -0.0, -0.71, -1.24, -1.24, -0.6, 0.89, 0.0, -0.63, -0.6, 0.76, 5.38, 11.53, 13.99, 9.81, 3.13, 3.13, 6.71, 9.83, 11.18, 11.62, 11.57, 11.35, 12.04, 12.56, 12.65, 10.78, 8.67, 4.47, 1.86, 0.57, 1.4, 4.24, 6.71, 7.15, 7.15, 6.98, 6.98, 7.3, 7.3, 7.3, 7.6, 7.9, 7.9, 8.19, 8.19, 8.19, 8.19, 8.19, 8.45, 8.78, 9.02, 9.37, 9.86, 9.86, 10.41, 10.41, 10.41, 10.58, 11.22, 11.22, 10.83, 11.22, 11.6, 11.6, 11.6, 11.62, 11.21, 11.33, 11.08, 11.08, 10.66, 10.6, 10.34, 10.34, 9.86, 10.01, 9.54, 9.67, 9.64, 9.64, 9.64, 9.62, 9.29, 9.28, 8.91, 8.46, 8.05, 7.6, 7.15, 6.26, 5.81, 4.92, 4.02, 3.58, -0.0, -1.58, -1.58, -0.95, -1.0, -0.0, -1.26, -0.95, -1.2, -1.34, -0.95, -0.6, 0.0, 2.41, 8.65, 11.53, 12.56, 12.52, 12.21, 11.92, 12.24, 12.07, 11.95, 11.71, 12.08, 12.27, 13.59, 14.47, 12.66, 10.73, 6.71, 4.3, 3.6, 1.9, 2.23, 3.82, 5.2, 7.01, 7.01, 6.98, 6.98, 6.98, 7.3, 7.3, 7.59, 7.59, 7.59, 7.86, 8.19, 8.19, 8.19, 8.45, 8.45, 8.45, 8.78, 9.02, 9.86, 9.86, 10.23, 10.41, 10.41, 10.68, 10.83, 10.83, 10.83, 10.83, 11.47, 11.6, 11.82, 11.41, 11.41, 11.21, 10.91, 11.08, 10.66, 10.6, 10.18, 10.34, 9.86, 10.01, 9.54, 9.23, 9.75, 9.75, 10.19, 10.08, 9.62, 9.28, 9.26, 8.9, 8.45, 8.0, 7.55, 7.1, 6.64, 5.73, 5.36, 4.47, 2.21, -0.0, -1.58, -1.26, -1.26, -0.0, 1.79, -0.63, -0.6, -0.6, -1.34, -0.95, 0.0, 2.8, 9.7, 12.27, 11.84, 11.62, 12.74, 14.57, 15.63, 13.84, 11.36, 10.18, 9.6, 10.58, 11.18, 11.18, 9.39, 5.32, 5.2, 5.02, 4.52, 3.74, 2.8, 3.47, 4.77, 6.14, 6.14, 6.98, 6.98, 6.98, 7.3, 7.3, 7.59, 7.59, 7.59, 7.86, 8.19, 8.19, 8.19, 8.45, 8.45, 8.45, 8.78, 9.02, 9.66, 9.86, 9.86, 10.41, 10.41, 10.68, 10.68, 10.83, 10.83, 11.08, 11.08, 11.08, 11.2, 11.41, 11.31, 11.12, 10.71, 10.91, 11.08, 10.66, 10.6, 10.34, 10.29, 9.81, 9.54, 9.21, 8.9, 8.92, 9.75, 10.08, 10.05, 9.58, 9.26, 8.8, 8.45, 8.0, 7.55, 7.54, 7.1, 6.2, 5.73, 4.02, 3.58, 3.2, -0.0, -1.58, -1.2, -0.0, -0.0, -0.0, -0.57, -0.57, -0.6, -1.79, -0.95, 1.34, 7.97, 12.52, 12.3, 10.68, 11.95, 15.13, 15.53, 13.12, 9.72, 7.74, 7.81, 8.05, 7.94, 7.52, 4.87, 4.73, 5.16, 5.64, 4.93, 4.3, 4.38, 3.51, 4.47, 5.81, 5.7, 6.98, 6.98, 6.98, 6.98, 7.59, 7.59, 7.59, 7.59, 7.86, 8.19, 8.19, 8.19, 8.45, 8.45, 8.45, 8.78, 8.78, 9.3, 9.86, 9.86, 9.86, 10.04, 10.68, 10.68, 10.68, 10.83, 11.08, 11.08, 11.08, 11.31, 11.31, 10.91, 11.12, 10.71, 10.91, 10.83, 10.6, 10.6, 10.6, 10.29, 9.81, 9.54, 8.64, 8.33, 8.47, 10.19, 10.96, 10.49, 10.02, 9.7, 8.8, 8.33, 7.89, 7.55, 7.55, 6.94, 6.51, 5.59, 4.38, 4.02, 4.02, 3.58, 3.13, -0.63, -0.0, -0.0, -1.58, -0.57, -0.0, -0.0, -0.0, -1.34, 0.0, 5.81, 13.41, 12.87, 9.49, 10.29, 13.54, 14.93, 12.08, 9.15, 8.0, 6.71, 4.57, 4.24, 4.77, 5.2, 5.2, 5.16, 5.2, 5.2, 5.2, 5.59, 4.92, 4.47, 4.92, 5.81, 6.98, 6.98, 6.98, 6.98, 7.59, 7.59, 7.59, 7.59, 7.86, 7.86, 8.19, 8.19, 8.19, 8.45, 8.45, 8.78, 8.78, 9.02, 9.66, 9.86, 9.86, 9.86, 10.04, 10.3, 10.3, 10.68, 11.08, 11.08, 11.08, 11.31, 10.91, 10.91, 10.71, 10.62, 10.21, 10.42, 10.42, 10.6, 10.6, 10.29, 10.24, 9.81, 8.91, 8.17, 8.77, 10.52, 11.84, 10.89, 9.97, 9.26, 8.8, 8.36, 7.89, 7.42, 7.42, 6.98, 6.51, 5.16, 4.66, 4.38, 4.47, 4.02, 3.13, 2.68, -0.0, 2.68, -1.34, -0.95, -0.0, -0.0, -0.0, -0.6, 0.0, 3.93, 10.68, 11.98, 10.18, 8.8, 10.8, 11.85, 10.53, 8.91, 8.0, 6.2, 4.52, 5.44, 6.36, 6.55, 6.07, 6.07, 5.2, 5.2, 5.64, 7.11, 6.26, 5.36, 5.26, 4.92, 6.98, 6.98, 6.98, 6.98, 7.59, 7.59, 7.59, 7.59, 7.59, 7.86, 8.19, 8.19, 8.19, 8.45, 8.45, 8.78, 8.78, 9.02, 9.3, 9.86, 9.86, 9.86, 9.86, 10.3, 10.3, 10.3, 10.55, 10.68, 10.68, 10.91, 10.91, 10.5, 10.62, 10.21, 10.21, 10.42, 10.33, 10.54, 10.54, 10.29, 10.24, 9.81, 9.33, 8.91, 9.04, 11.21, 10.89, 9.24, 8.36, 8.36, 8.36, 8.33, 7.89, 7.45, 7.45, 6.98, 6.55, 5.59, 5.09, 4.82, 4.77, 4.47, 4.47, 3.58, 3.13, 3.13, 1.79, -0.0, -0.0, -0.0, -0.0, 0.0, 0.0, 1.66, 3.74, 8.94, 11.4, 10.7, 9.26, 8.0, 5.21, 4.24, 4.92, 6.98, 7.28, 7.45, 7.01, 7.01, 7.45, 7.01, 6.66, 6.22, 6.22, 8.05, 8.05, 7.15, 6.58, 6.58, 6.98, 6.98, 6.98, 6.98, 7.28, 7.59, 7.59, 7.59, 7.59, 7.59, 8.19, 8.19, 8.19, 8.45, 8.45, 8.78, 8.78, 8.78, 9.02, 9.66, 9.86, 9.86, 9.86, 10.13, 10.3, 10.3, 10.55, 10.55, 10.55, 10.91, 10.91, 10.62, 10.62, 10.21, 10.42, 10.33, 10.33, 10.12, 10.12, 10.24, 10.24, 9.81, 9.81, 9.75, 10.46, 11.45, 10.05, 7.94, 7.04, 7.12, 7.57, 8.01, 7.89, 7.71, 7.28, 7.28, 6.36, 5.86, 5.59, 5.09, 5.26, 4.77, 4.02, 4.02, 3.13, 3.13, -0.0, -0.0, -0.0, -0.0, 0.89, 0.0, 0.0, 1.27, 1.49, 4.89, 8.82, 10.73, 8.05, 4.02, 2.68, 3.74, 8.06, 9.83, 10.02, 9.26, 7.57, 7.12, 7.15, 7.15, 7.15, 7.15, 7.15, 8.05, 8.49, 8.38, 8.38, 8.38, 6.98, 6.98, 6.98, 6.98, 7.28, 7.59, 7.59, 7.59, 7.59, 7.59, 7.86, 8.19, 8.19, 8.19, 8.45, 8.78, 8.78, 8.78, 8.78, 9.3, 9.3, 9.5, 9.86, 10.13, 10.13, 10.3, 10.3, 10.55, 10.55, 10.8, 10.4, 10.62, 10.21, 10.21, 10.33, 10.33, 9.92, 10.12, 10.05, 10.05, 9.81, 9.81, 9.81, 9.75, 10.37, 10.8, 10.08, 8.3, 7.51, 7.07, 7.13, 7.12, 7.56, 7.42, 7.21, 7.21, 6.79, 6.36, 5.75, 5.51, 5.09, 5.26, 4.77, 4.47, 3.13, 3.13, -0.0, -0.0, -0.0, -0.0, 0.45, 0.0, 0.0, 0.63, 2.72, 4.71, 7.32, 9.54, 9.39, 8.14, 8.82, 10.55, 13.04, 13.07, 12.14, 10.62, 8.46, 6.71, 6.26, 6.71, 6.71, 7.15, 7.15, 8.9, 8.89, 8.87, 8.87, 8.87, 6.98, 6.98, 6.98, 6.98, 6.98, 7.59, 7.59, 7.59, 7.59, 7.59, 7.86, 8.19, 8.19, 8.19, 8.45, 8.45, 8.78, 8.78, 8.78, 9.3, 9.3, 9.3, 9.5, 9.76, 9.76, 9.76, 9.92, 10.16, 10.16, 10.4, 10.4, 10.4, 10.21, 10.21, 10.33, 10.33, 9.92, 10.12, 9.63, 9.63, 9.81, 9.81, 9.81, 9.93, 9.93, 9.93, 9.64, 9.21, 8.3, 7.87, 7.51, 6.61, 6.68, 7.12, 7.42, 7.21, 6.54, 6.13, 5.86, 5.75, 5.51, 5.09, 5.26, 4.34, 4.02, 3.13, -0.0, -0.0, -0.0, -0.95, 0.45, 0.0, 0.0, 1.7, 3.11, 3.43, 4.46, 8.36, 11.18, 11.92, 12.5, 15.02, 16.79, 15.69, 13.49, 11.06, 9.26, 8.45, 8.05, 6.71, 8.41, 6.21, 7.11, 8.29, 8.29, 8.24, 8.24, 8.24, 6.98, 6.98, 6.98, 6.98, 6.98, 7.3, 7.59, 7.59, 7.59, 7.59, 7.59, 7.86, 8.19, 8.19, 8.19, 8.45, 8.45, 8.45, 8.45, 8.78, 9.3, 9.3, 9.3, 9.76, 9.76, 9.76, 10.02, 10.02, 10.16, 10.4, 10.4, 10.0, 10.21, 10.21, 10.33, 9.92, 9.92, 10.12, 9.63, 9.63, 9.81, 9.81, 9.75, 9.93, 9.93, 9.89, 9.46, 9.07, 8.6, 8.3, 7.87, 7.51, 7.06, 6.6, 7.01, 6.79, 6.79, 6.54, 6.13, 5.86, 5.34, 5.59, 5.09, 4.82, 3.9, 3.58, 3.13, -0.0, -0.0, -0.63, 0.0, 0.0, 0.65, 1.33, 1.88, 2.23, 3.07, 7.6, 9.7, 8.38, 10.01, 14.86, 17.96, 16.33, 13.49, 10.93, 10.25, 10.28, 9.83, 9.32, 7.06, 4.73, 6.07, 6.94, 7.12, 7.12, 7.12, 7.12, 7.3, 7.3, 7.3, 7.3, 7.3, 7.3, 7.59, 7.59, 7.59, 7.59, 7.59, 7.86, 7.86, 8.19, 8.19, 8.19, 8.45, 8.45, 8.45, 8.73, 8.94, 8.94, 9.21, 9.21, 9.58, 9.76, 10.02, 10.02, 10.02, 10.27, 9.88, 9.88, 10.11, 10.11, 10.11, 9.92, 9.92, 10.12, 9.63, 9.63, 9.81, 9.81, 9.75, 9.5, 9.5, 9.5, 9.46, 9.03, 8.6, 8.6, 8.17, 7.87, 7.4, 7.06, 6.58, 6.98, 6.79, 6.54, 6.13, 6.0, 5.86, 5.34, 5.16, 4.66, 4.38, 4.02, 3.58, 3.13, 3.13, 1.34, 0.0, 0.0, 0.0, 0.0, 0.0, 2.24, 3.13, 6.17, 5.77, 4.12, 6.7, 13.75, 17.89, 16.8, 15.1, 12.62, 10.73, 9.81, 8.9, 5.16, 4.24, 4.4, 4.93, 5.75, 6.0, 6.0, 6.0, 6.0, 7.3, 7.3, 7.3, 7.3, 7.3, 7.3, 7.3, 7.59, 7.59, 7.59, 7.59, 7.59, 7.86, 7.86, 8.19, 8.19, 8.19, 8.45, 8.73, 8.73, 8.73, 8.94, 9.21, 9.21, 9.21, 9.21, 9.63, 9.63, 9.63, 9.88, 9.88, 9.88, 10.11, 10.11, 9.71, 9.92, 9.92, 9.63, 9.63, 9.63, 9.81, 9.39, 9.33, 9.33, 9.5, 9.5, 9.07, 9.07, 8.6, 8.6, 8.17, 8.17, 7.69, 7.4, 6.6, 6.58, 6.55, 6.28, 6.0, 5.6, 5.6, 5.34, 4.93, 4.73, 4.41, 4.47, 4.02, 3.58, 3.13, 1.34, 1.34, -0.95, -0.8, -1.6, -1.26, 1.79, 2.68, 2.21, 2.6, 3.2, 5.77, 10.68, 14.79, 15.91, 15.74, 13.21, 9.81, 6.21, 5.32, 5.32, 4.3, 4.0, 4.09, 4.84, 5.43, 5.69, 5.69, 5.69, 7.3, 7.3, 7.3, 7.3, 7.3, 7.3, 7.59, 7.59, 7.59, 7.59, 7.59, 7.59, 7.59, 7.86, 7.86, 7.86, 8.19, 8.49, 8.73, 8.73, 8.73, 9.01, 9.01, 9.21, 9.21, 9.48, 9.48, 9.63, 9.63, 9.88, 9.88, 9.88, 9.71, 9.71, 9.71, 9.92, 9.83, 9.42, 9.63, 9.63, 9.63, 9.39, 9.33, 9.33, 9.33, 9.33, 8.91, 9.07, 8.64, 8.6, 8.17, 8.17, 7.69, 7.69, 6.94, 6.42, 6.11, 5.86, 5.86, 5.6, 5.6, 5.2, 4.66, 4.52, 4.24, 3.82, 3.13, 3.13, 1.58, -0.0, 1.79, 1.79, -1.6, -1.6, -1.6, -1.79, -0.0, -0.0, 1.16, 2.79, 4.84, 7.03, 9.3, 12.51, 14.27, 13.4, 4.92, 3.39, 3.98, 5.36, 5.78, 4.52, 3.72, 4.46, 4.12, 5.09, 5.09, 5.09, 7.3, 7.3, 7.3, 7.3, 7.3, 7.3, 7.59, 7.59, 7.59, 7.59, 7.59, 7.59, 7.59, 7.86, 7.86, 8.15, 8.15, 8.15, 8.15, 8.73, 8.73, 9.01, 9.01, 9.01, 9.21, 9.48, 9.48, 9.48, 9.74, 9.74, 9.48, 9.71, 9.71, 9.71, 9.83, 9.42, 9.42, 9.42, 9.63, 9.63, 9.63, 9.13, 9.33, 9.33, 9.33, 8.91, 8.91, 8.48, 8.48, 8.6, 8.17, 8.17, 8.12, 7.26, 6.79, 6.3, 6.42, 5.94, 5.44, 5.2, 5.2, 5.05, 4.66, 4.66, 4.09, 3.72, 3.2, 2.68, 1.79, 1.34, 1.79, 1.79, 1.79, -1.6, -1.7, -1.79, -1.79, -0.8, -0.0, 1.9, 3.45, 4.19, 5.09, 9.49, 13.96, 11.15, 5.81, 3.32, 2.68, 4.3, 6.11, 6.36, 4.66, 3.78, 4.12, 4.46, 4.46, 4.46, 7.3, 7.3, 7.3, 7.3, 7.3, 7.3, 7.59, 7.59, 7.59, 7.59, 7.59, 7.59, 7.59, 7.88, 8.15, 8.15, 8.15, 8.15, 8.15, 8.15, 8.38, 9.01, 9.01, 9.01, 9.3, 9.1, 9.1, 9.35, 9.35, 9.35, 9.35, 9.6, 9.6, 9.2, 9.42, 9.42, 9.42, 9.42, 9.42, 9.63, 9.55, 9.13, 9.13, 9.13, 8.91, 8.84, 8.42, 8.42, 8.42, 8.0, 8.17, 8.17, 8.12, 7.69, 7.21, 7.14, 6.64, 6.36, 5.86, 5.2, 5.05, 5.05, 4.37, 4.37, 4.12, 3.84, 2.84, 1.4, 0.0, -0.6, -1.2, 1.34, 2.24, 2.24, -1.79, -2.68, -2.24, -1.86, -0.6, 1.6, 2.8, 2.79, 3.83, 8.01, 15.63, 12.94, 7.6, 3.32, 2.21, 2.79, 4.66, 7.06, 5.6, 3.48, 3.48, 3.79, 3.79, 3.79, 7.3, 7.3, 7.3, 7.3, 7.3, 7.59, 7.59, 7.59, 7.59, 7.59, 7.59, 7.27, 7.88, 7.88, 7.88, 8.15, 8.15, 8.15, 8.15, 8.44, 8.44, 8.65, 8.65, 8.65, 8.93, 8.93, 8.93, 9.35, 9.35, 9.35, 9.6, 9.6, 9.2, 9.2, 9.42, 9.42, 9.42, 9.42, 9.42, 9.63, 9.55, 9.55, 9.13, 9.13, 9.04, 8.63, 8.42, 8.42, 8.0, 8.0, 8.0, 8.0, 7.69, 7.63, 7.43, 7.01, 6.92, 6.64, 6.13, 5.6, 5.05, 5.05, 4.73, 4.73, 4.46, 4.11, 2.68, 1.13, 0.0, -0.65, -1.9, -1.49, 0.0, 2.4, 2.24, -2.24, -2.68, -2.0, -0.0, 0.89, 1.6, 2.5, 3.82, 14.66, 16.47, 14.23, 10.24, 4.82, 1.4, 2.23, 3.78, 6.25, 5.69, 3.48, 2.79, 2.3, 2.3, 2.3, 7.3, 7.3, 7.3, 7.3, 7.59, 7.59, 7.59, 7.59, 7.27, 7.27, 7.27, 7.27, 7.55, 7.55, 7.88, 8.15, 8.15, 8.15, 8.44, 8.44, 8.44, 8.44, 8.65, 8.93, 8.93, 8.93, 8.93, 9.2, 9.35, 9.35, 9.2, 9.2, 9.2, 9.2, 9.42, 9.42, 9.42, 9.42, 9.42, 9.63, 9.55, 9.13, 9.13, 9.13, 9.04, 8.63, 8.22, 8.22, 8.0, 8.0, 8.0, 8.0, 7.51, 7.43, 7.01, 6.92, 6.92, 6.8, 6.25, 6.0, 5.6, 5.09, 5.09, 5.09, 4.75, 4.43, 3.72, 2.4, 0.0, 0.0, -0.99, -1.13, -0.87, 0.0, 0.71, 1.79, -1.79, -1.34, 0.89, 0.89, 0.89, 1.7, 8.05, 13.41, 15.65, 13.86, 10.69, 6.64, 0.87, 1.84, 3.16, 5.95, 6.44, 4.19, 3.16, 2.0, 2.0, 2.0, 6.98, 6.98, 7.59, 7.59, 7.59, 7.59, 7.59, 7.27, 7.27, 7.27, 7.27, 7.55, 7.55, 7.55, 7.55, 7.55, 7.81, 8.44, 8.44, 8.44, 8.44, 8.44, 8.44, 8.93, 8.93, 8.93, 8.93, 8.82, 8.82, 8.96, 9.2, 9.2, 9.2, 9.2, 9.42, 9.42, 9.42, 9.42, 9.42, 9.42, 9.13, 9.13, 9.13, 9.13, 8.63, 8.63, 8.22, 8.22, 7.81, 7.81, 7.81, 8.0, 7.51, 7.01, 7.01, 6.92, 6.92, 6.52, 6.8, 6.25, 5.69, 5.46, 5.09, 4.75, 5.09, 4.74, 3.9, 2.88, 0.76, 0.85, 2.21, 0.0, -0.76, 0.0, 0.0, 0.0, -0.71, 0.0, 0.54, 0.57, 0.0, 0.95, 5.81, 11.18, 12.49, 11.15, 8.49, 4.8, 0.0, 1.27, 3.72, 6.7, 6.99, 5.37, 3.93, 3.48, 3.48, 3.48, 6.97, 6.97, 6.97, 7.28, 7.59, 7.27, 7.27, 7.27, 7.27, 7.27, 7.55, 7.55, 7.55, 7.55, 7.55, 7.55, 7.55, 8.08, 8.08, 8.08, 8.08, 8.44, 8.44, 8.93, 8.93, 8.55, 8.55, 8.82, 8.82, 8.82, 9.07, 9.2, 9.2, 9.2, 9.2, 9.42, 9.42, 9.01, 8.91, 8.91, 8.91, 9.13, 9.13, 9.13, 8.63, 8.63, 8.22, 8.22, 7.81, 7.81, 7.81, 7.81, 7.31, 6.8, 6.8, 6.67, 6.67, 6.67, 6.52, 5.95, 5.95, 5.72, 5.09, 5.09, 5.09, 4.36, 4.36, 3.33, 2.47, 1.27, 1.9, 2.24, 0.0, -0.61, 0.0, 0.0, 0.0, 0.0, 0.0, 0.0, 0.0, 1.88, 3.6, 7.56, 9.83, 8.94, 7.15, 4.38, 0.0, 0.0, 2.98, 5.49, 6.21, 6.0, 4.29, 5.2, 5.2, 5.2, 6.97, 6.97, 6.97, 6.97, 6.97, 6.97, 7.27, 7.27, 7.27, 7.27, 7.55, 7.55, 7.55, 7.55, 7.55, 7.55, 7.85, 7.85, 8.08, 8.08, 8.08, 8.08, 8.08, 8.37, 8.55, 8.55, 8.55, 8.82, 8.82, 8.82, 8.82, 9.07, 9.07, 9.2, 9.2, 9.2, 9.32, 8.91, 8.91, 8.91, 8.91, 8.91, 8.91, 8.72, 8.63, 8.63, 8.22, 8.22, 7.81, 7.81, 7.81, 7.71, 7.31, 7.2, 6.8, 6.67, 6.67, 6.52, 6.52, 6.52, 5.95, 5.95, 5.72, 5.43, 5.06, 5.06, 4.65, 4.16, 2.64, 1.08, 1.2, 1.0, 0.0, -1.4, -1.49, 0.0, 0.0, 0.0, 0.0, 0.0, 0.0, 1.13, 2.79, 5.05, 7.92, 8.05, 6.71, 4.92, 2.21, 0.0, 1.27, 2.07, 4.46, 6.4, 5.37, 3.6, 3.6, 3.6, 6.97, 6.97, 6.97, 6.97, 6.97, 6.97, 6.97, 6.97, 7.27, 7.27, 7.55, 7.55, 7.55, 7.55, 7.55, 7.55, 7.85, 7.85, 7.85, 8.08, 8.08, 8.08, 8.08, 8.37, 8.37, 8.37, 8.37, 8.55, 8.82, 8.82, 8.82, 8.82, 9.07, 9.07, 9.07, 8.68, 8.68, 8.91, 8.91, 8.91, 8.91, 8.91, 8.51, 8.51, 8.4, 8.4, 8.0, 8.0, 7.6, 7.48, 7.48, 7.48, 7.31, 7.2, 6.8, 6.67, 6.41, 6.23, 6.23, 6.23, 5.65, 5.65, 5.65, 5.38, 5.06, 5.06, 5.06, 4.65, 3.55, 1.3, 0.98, 0.65, 0.0, -1.2, -1.6, -0.76, 0.0, 0.0, 0.0, -0.66, -0.59, 0.0, 2.0, 4.46, 7.89, 9.24, 8.44, 6.71, 5.81, 2.98, 0.0, 0.76, 2.84, 4.6, 3.6, 3.13, 3.13, 3.13, 6.97, 6.97, 6.97, 6.97, 6.97, 6.97, 6.97, 6.97, 6.97, 7.27, 7.55, 7.55, 7.55, 7.55, 7.55, 7.55, 7.55, 7.85, 7.85, 8.08, 8.08, 8.08, 8.08, 8.37, 8.37, 8.37, 8.37, 8.37, 8.37, 8.82, 8.82, 8.82, 8.82, 9.07, 8.68, 8.68, 8.68, 8.68, 8.91, 8.91, 8.91, 8.51, 8.51, 8.51, 8.4, 8.0, 8.0, 8.0, 8.0, 7.48, 7.48, 7.48, 7.08, 6.95, 6.95, 6.56, 6.41, 6.23, 6.23, 6.23, 5.68, 5.68, 5.35, 5.35, 5.06, 4.71, 5.06, 4.95, 4.42, 3.55, 2.2, 0.61, 0.54, 0.0, -1.4, -1.08, -0.87, -0.85, -1.88, -1.84, -1.13, 0.0, 2.0, 4.43, 8.4, 10.84, 11.0, 9.33, 8.49, 8.05, 4.09, 0.99, 1.74, 2.6, 3.13, 3.58, 3.58, 3.58, 6.67, 6.67, 6.67, 6.97, 6.97, 6.97, 6.97, 6.97, 6.97, 7.27, 7.27, 7.27, 7.23, 7.23, 7.23, 7.23, 7.23, 7.51, 7.51, 7.51, 7.73, 8.08, 8.08, 8.08, 8.37, 8.37, 8.37, 8.37, 8.37, 8.37, 8.65, 8.82, 8.43, 8.43, 8.43, 8.68, 8.68, 8.68, 8.68, 8.68, 8.28, 8.51, 8.51, 8.51, 8.4, 8.0, 8.0, 8.0, 8.0, 7.48, 7.48, 7.48, 6.95, 6.95, 6.95, 6.79, 6.79, 5.93, 5.93, 5.93, 5.68, 5.68, 5.68, 5.37, 5.37, 5.37, 5.0, 5.37, 5.24, 4.03, 3.0, 1.4, 0.65, 4.02, 2.24, -1.4, -1.8, -1.58, -1.88, -1.84, -1.13, 0.0, 1.23, 4.01, 8.0, 10.84, 11.46, 10.73, 9.83, 9.83, 8.94, 5.21, 1.6, 3.13, 3.58, 4.92, 4.92, 4.92, 6.67, 6.67, 6.67, 6.67, 6.67, 6.67, 6.97, 6.97, 6.97, 7.27, 7.27, 7.27, 6.95, 7.23, 7.23, 7.23, 7.23, 7.23, 7.51, 7.51, 7.51, 8.08, 8.08, 8.08, 8.37, 8.37, 8.37, 8.37, 8.37, 8.37, 8.0, 8.27, 8.43, 8.43, 8.43, 8.43, 8.68, 8.68, 8.68, 8.28, 8.28, 8.28, 8.28, 8.28, 8.4, 8.4, 8.0, 8.0, 8.0, 7.87, 7.48, 7.48, 7.34, 6.7, 6.7, 6.51, 6.51, 6.28, 5.93, 5.93, 5.37, 5.37, 5.37, 5.37, 5.37, 5.05, 5.0, 5.3, 5.3, 4.56, 4.02, 2.84, 1.8, 2.84, 1.79, 0.0, -2.21, -1.9, -1.88, -1.33, -0.57, 0.0, 1.47, 3.9, 6.79, 9.66, 10.68, 10.28, 9.83, 9.39, 9.39, 7.6, 5.81, 4.92, 5.26, 6.14, 6.14, 6.14, 6.67, 6.67, 6.67, 6.67, 6.67, 6.67, 6.97, 6.97, 6.97, 7.27, 7.27, 7.27, 6.95, 7.23, 7.23, 7.23, 7.23, 7.23, 7.51, 7.51, 7.51, 8.08, 8.08, 8.08, 8.37, 8.37, 8.37, 8.37, 8.37, 8.37, 8.0, 8.27, 8.43, 8.43, 8.43, 8.43, 8.68, 8.68, 8.68, 8.28, 8.28, 8.28, 8.28, 8.28, 8.4, 8.4, 8.0, 8.0, 8.0, 7.87, 7.48, 7.48, 7.34, 6.7, 6.7, 6.51, 6.51, 6.28, 5.93, 5.93, 5.37, 5.37, 5.37, 5.37, 5.37, 5.05, 5.0, 5.3, 5.3, 4.56, 4.02, 2.84, 1.8, 2.84, 1.79, 0.0, -2.21, -1.9, -1.88, -1.33, -0.57, 0.0, 1.3, 3.2, 5.69, 7.82, 9.21, 9.79, 9.83, 9.83, 9.83, 9.32, 8.41, 7.5, 7.06, 7.5, 7.5, 7.5]}, {"header": {"dx": 0.06612293990616946, "dy": 0.0552356325346848, "nx": 98, "ny": 59, "la1": 35.046912555036876, "la2": 31.78801023549047, "lo1": -121.43107172385933, "lo2": -114.95102361305473, "refTime": "2026040707", "parameterCategory": 1, "parameterNumber": 3}, "data": [-8.82, -8.82, -8.82, -8.82, -8.82, -8.49, -8.53, -8.19, -7.9, -7.27, -6.7, -5.82, -3.82, -2.68, 0.0, 0.0, -0.45, -1.79, -2.8, -2.86, -2.53, -1.58, -2.0, -2.68, -2.8, -2.84, -2.48, -1.19, 0.0, 1.3, 3.0, 2.99, 2.76, 1.66, 1.66, 0.73, 0.0, 0.0, -0.63, -1.27, -1.13, -0.73, -1.23, -2.54, -4.6, -7.01, -9.28, -10.47, -10.1, -8.29, 1.3, 5.75, 6.51, 7.21, 8.14, 8.17, 7.81, 6.18, 5.21, 4.83, 4.2, 4.0, 3.6, 4.29, 5.36, 5.06, 4.22, 3.8, 3.81, 4.3, 4.33, 3.68, 3.08, 2.49, 2.7, 4.4, 3.98, 2.99, 2.39, 1.13, 0.0, -0.0, -0.0, -2.0, -1.6, 0.0, 3.13, 1.9, 0.87, -0.81, -2.99, -5.28, -6.2, -6.87, -6.56, -5.93, -4.5, -2.8, -9.14, -9.14, -8.82, -8.82, -8.49, -8.49, -8.44, -8.19, -8.15, -7.87, -6.87, -5.37, -3.6, -2.4, -3.58, 0.0, -0.6, -1.34, -2.6, -3.14, -3.22, -2.86, -2.0, -3.13, -1.6, -2.48, -2.23, -1.13, 0.0, 2.53, 1.8, 1.6, 1.4, 0.99, 0.76, 0.0, 0.0, -0.7, -0.7, -1.41, -2.0, -2.32, -4.96, -7.48, -10.18, -12.01, -12.87, -12.02, -11.62, -1.55, 5.73, 6.55, 6.98, 7.28, 7.06, 7.42, 6.73, 6.18, 5.06, 4.4, 4.4, 3.63, 3.99, 5.06, 5.06, 5.37, 4.94, 4.74, 4.56, 4.92, 4.87, 4.47, 3.82, 2.49, 2.83, 3.14, 3.95, 2.99, 2.39, 1.13, 0.0, -0.0, -0.0, -2.0, -1.6, 0.0, 3.13, 1.9, 0.87, -0.81, -2.99, -5.28, -6.2, -6.87, -6.56, -5.93, -4.5, -2.8, -9.14, -9.14, -8.79, -8.79, -8.79, -8.79, -8.44, -8.44, -8.15, -7.8, -7.44, -6.59, -3.22, -2.6, -1.9, -1.0, -0.85, -1.26, -2.68, -3.32, -3.72, -4.22, -3.74, -3.47, -3.39, -2.48, -1.27, 0.0, 0.0, 2.68, -2.68, -2.24, -2.68, 0.0, 0.0, 0.0, -0.63, -0.67, -1.52, -3.11, -5.0, -7.27, -10.24, -13.14, -15.12, -15.74, -14.99, -13.35, -5.06, 6.14, 7.01, 7.45, 6.79, 6.79, 6.54, 6.82, 6.01, 5.76, 5.06, 4.07, 4.07, 3.45, 4.87, 6.18, 6.11, 6.01, 6.18, 6.31, 6.59, 6.57, 6.7, 5.93, 3.55, 2.33, 1.32, 1.01, 1.6, 3.14, 1.45, 0.96, 0.0, 0.0, -0.0, -2.8, -1.8, -0.0, 2.8, 1.74, 0.0, -1.55, -4.5, -6.45, -6.97, -6.97, -6.45, -3.98, -1.36, 0.0, -8.79, -8.79, -8.79, -8.79, -8.79, -8.44, -8.44, -8.08, -8.37, -7.8, -7.72, -7.44, -4.98, -3.74, -3.2, -2.21, -1.98, -2.84, -2.15, -2.68, -3.82, -4.15, -4.98, -4.73, -3.97, -3.58, -1.4, 0.0, 0.0, 0.0, -2.68, -3.32, -3.83, -3.9, -3.2, -2.68, -2.16, -3.4, -4.6, -6.42, -8.85, -11.49, -13.14, -13.14, -13.14, -12.45, -11.49, -5.69, 4.74, 6.79, 7.14, 6.79, 6.0, 6.4, 6.44, 6.79, 5.89, 5.76, 5.29, 4.25, 3.49, 4.26, 5.37, 6.18, 7.15, 6.64, 6.95, 7.27, 8.22, 8.09, 8.05, 6.94, 4.66, 3.04, 1.26, -0.96, -1.45, -0.77, 0.8, 0.0, 0.0, 2.6, -0.0, -2.6, -0.0, -0.0, 1.13, 0.0, -1.72, -4.5, -6.21, -6.09, -6.57, -5.95, -1.4, 0.88, 0.0, 1.35, -9.01, -8.79, -8.79, -8.79, -8.44, -8.44, -8.44, -8.08, -8.37, -8.0, -7.72, -7.44, -5.2, -4.22, -3.83, -4.22, -3.22, -2.68, -2.5, -3.53, -3.95, -3.74, -3.74, -4.15, -4.0, -3.2, -3.13, -3.13, -1.4, -0.87, -2.21, -4.85, -6.94, -8.4, -9.39, -9.46, -9.04, -8.94, -10.24, -11.52, -11.52, -9.9, -6.88, -4.6, -4.71, -4.6, -2.99, 2.26, 5.43, 6.07, 6.0, 5.82, 5.82, 6.6, 6.44, 6.73, 5.89, 5.21, 5.52, 4.6, 3.06, 3.9, 5.82, 6.82, 7.41, 7.35, 6.95, 7.02, 7.97, 8.12, 7.49, 6.66, 6.54, 6.43, 4.28, 0.0, -2.73, -2.9, -0.74, 0.0, 0.81, 1.27, -5.81, -2.66, -1.27, -3.2, -1.49, -2.83, -5.2, -7.25, -6.56, -5.41, -7.06, 0.0, 3.9, 1.61, 0.0, 1.35, -9.01, -9.01, -8.79, -8.79, -8.44, -8.65, -8.65, -8.29, -8.37, -8.0, -7.9, -7.61, -4.84, -4.22, -4.22, -4.6, -4.6, -4.6, -4.84, -6.2, -6.88, -5.6, -5.6, -3.83, -3.45, -3.74, -3.74, -4.02, -3.95, -3.6, -2.41, -3.35, -6.71, -9.35, -11.18, -11.08, -11.36, -11.64, -12.52, -11.16, -9.2, -6.32, -2.73, -2.31, -2.34, -2.28, 0.74, 3.91, 4.95, 4.81, 4.54, 4.81, 5.82, 5.82, 5.77, 5.24, 5.1, 4.12, 3.88, 3.85, 2.9, 2.98, 5.82, 6.7, 7.06, 7.35, 6.95, 6.32, 6.01, 5.9, 5.25, 5.15, 6.94, 7.0, 5.96, 2.9, -1.26, -2.3, 0.0, 0.93, 0.88, -0.98, -3.22, -7.06, -3.84, -4.02, -6.08, -6.97, -8.31, -8.18, -6.57, -7.51, -6.64, 2.84, 2.4, 0.0, 0.0, 2.0, -9.01, -9.01, -9.01, -9.01, -8.65, -8.65, -8.65, -8.29, -8.55, -8.43, -7.9, -8.0, -4.84, -3.83, -4.29, -4.8, -5.2, -5.58, -5.82, -5.69, -4.43, -4.4, -6.21, -8.0, -7.95, -6.88, -7.74, -7.98, -7.6, -5.81, -3.58, -2.53, -1.6, -4.65, -8.8, -10.18, -11.36, -11.2, -9.3, -7.07, -6.99, -8.24, -9.4, -9.69, -7.69, 0.0, 4.16, 5.59, 5.69, 5.06, 5.24, 4.81, 5.43, 5.43, 5.06, 3.9, 3.79, 3.47, 3.15, 3.11, 2.82, 3.07, 4.89, 5.58, 6.21, 6.79, 6.48, 5.2, 3.4, 2.83, 2.6, 2.82, 3.32, 2.64, 2.5, 2.72, 1.96, 1.2, 2.6, 2.59, 0.0, -3.0, -5.37, -7.2, -7.6, -8.84, -10.4, -10.24, -9.4, -8.76, -8.53, -8.9, -2.4, 2.84, 2.21, -0.59, 0.0, 2.07, -9.01, -9.01, -9.01, -9.01, -8.65, -8.65, -8.65, -8.93, -8.55, -8.82, -8.68, -8.51, -6.16, -5.2, -5.24, -5.05, -5.09, -5.46, -4.46, -2.98, 0.0, 1.33, -0.65, -4.47, -7.71, -9.16, -9.77, -9.16, -7.4, -6.4, -5.4, -5.64, -7.15, -7.15, -8.18, -9.49, -10.49, -10.25, -9.1, -7.28, -4.22, -5.2, -8.4, -7.37, -1.86, 3.51, 4.93, 5.37, 6.01, 6.18, 3.79, 5.09, 5.43, 5.06, 4.65, 4.29, 4.22, 3.6, 3.06, 3.06, 2.26, 2.07, 2.84, 4.29, 4.98, 5.59, 4.56, 3.14, 1.1, 0.0, 0.99, 0.93, 0.0, -0.75, -0.79, 0.0, 2.62, 5.4, 4.49, 2.64, 0.78, -3.32, -6.24, -7.32, -8.4, -9.86, -10.26, -10.55, -9.56, -8.53, -8.94, -4.98, 3.16, 3.6, 0.0, -0.7, 0.0, 1.49, -9.01, -9.01, -9.01, -9.01, -9.01, -8.65, -8.65, -8.65, -9.1, -9.1, -9.48, -10.42, -9.75, -9.97, -8.56, -7.35, -7.42, -7.03, -4.19, -1.88, 0.0, 1.05, 1.84, -0.88, -4.3, -5.36, -6.64, -6.6, -7.28, -7.07, -9.97, -12.45, -13.86, -13.63, -11.27, -8.8, -10.05, -10.28, -6.4, -2.21, -0.8, -0.6, -0.95, 0.0, 2.24, 3.53, 2.8, 3.22, 4.73, 6.44, 7.37, 6.07, 6.08, 5.37, 5.3, 4.94, 4.6, 3.88, 3.78, 2.97, 2.31, 1.55, 3.16, 4.4, 4.98, 5.06, 4.56, 2.83, 0.96, 0.0, 0.0, 0.0, -0.74, -1.41, -0.7, 0.0, 0.89, 1.56, 1.61, 1.44, 1.65, 0.0, -3.65, -5.72, -7.92, -9.05, -8.76, -8.65, -7.59, -6.95, -4.54, 4.4, 2.98, 2.68, 0.0, -0.82, 0.0, 0.0, -9.01, -9.01, -9.01, -9.01, -9.01, -9.01, -9.21, -9.21, -9.48, -9.63, -10.55, -11.08, -10.91, -12.04, -11.8, -11.84, -12.53, -12.71, -12.31, -12.01, -10.41, -9.2, -6.64, -5.03, -6.9, -7.06, -4.41, -6.32, -9.67, -10.7, -12.07, -12.92, -11.62, -10.73, -11.18, -10.2, -7.76, -3.72, 0.0, 1.34, 1.34, 0.0, 1.34, 1.2, 1.34, 1.7, 1.7, 2.4, 3.82, 5.16, 6.7, 6.18, 5.37, 4.56, 4.94, 5.13, 4.71, 3.69, 3.16, 2.31, 1.47, 2.64, 6.44, 5.94, 6.16, 5.06, 4.2, 3.21, 1.7, 0.7, 0.0, 0.0, -0.68, -0.68, 0.0, 0.0, -0.77, -1.6, -1.48, -0.69, 0.0, 0.0, 0.0, -3.4, -5.31, -6.25, -6.59, -6.35, -5.69, -3.72, -2.4, 4.47, 0.0, -2.53, -1.83, -1.35, -1.35, -1.27, -9.01, -9.01, -9.01, -9.01, -9.01, -9.21, -9.21, -9.21, -9.76, -9.76, -10.68, -11.34, -10.96, -11.08, -10.43, -12.37, -13.23, -14.9, -15.54, -16.94, -17.41, -17.41, -16.31, -13.82, -11.56, -7.6, -4.47, -3.95, -6.0, -10.04, -9.83, -4.47, -1.7, -2.12, -4.88, -8.94, -7.4, -1.26, 1.58, 0.0, -1.79, -1.79, 0.0, 1.34, 1.79, 1.79, 2.12, 2.4, 3.39, 3.97, 3.6, 3.79, 3.22, 3.79, 4.46, 4.5, 4.68, 2.99, 1.54, 0.74, 1.52, 5.15, 7.4, 7.55, 7.63, 6.39, 5.28, 4.5, 3.4, 1.47, 0.0, 0.0, -0.7, 0.0, 0.0, -0.68, -2.11, -3.15, -3.78, -4.65, -3.47, -2.11, 0.0, 0.0, -2.99, -5.09, -4.8, -4.75, -4.43, -3.48, -3.58, -3.6, -4.34, -4.34, -2.79, -2.66, -2.44, -1.8, -9.01, -9.01, -9.01, -9.01, -9.21, -9.21, -9.58, -9.58, -9.76, -9.86, -10.41, -10.96, -11.07, -10.87, -9.37, -8.65, -7.72, -9.71, -11.95, -13.86, -12.89, -11.01, -9.82, -10.28, -6.26, -2.24, -1.79, -0.45, 0.0, -2.0, -2.8, -0.0, 1.58, 1.6, -1.34, -3.13, -3.32, -0.65, -0.85, -1.74, -1.0, -0.0, 1.34, 1.79, 2.68, 2.68, 2.24, 1.26, 1.9, 1.9, 0.0, 0.0, 0.0, 0.63, 1.41, 1.58, 1.56, 0.75, 0.0, -0.75, 3.47, 7.53, 8.29, 7.6, 8.17, 6.32, 5.95, 6.09, 4.8, 3.11, 0.67, 0.0, 0.0, 0.0, 0.0, -1.5, -2.21, -3.7, -5.7, -6.21, -5.6, -3.11, -1.55, 0.82, 0.89, -1.4, -6.13, -4.09, -3.84, -3.93, -4.57, -4.87, -4.47, -4.41, -3.72, -4.36, -2.48, -2.15, -9.01, -9.01, -9.01, -9.21, -9.21, -9.58, -9.58, -9.5, -9.86, -10.23, -10.41, -10.7, -11.07, -11.16, -9.72, -7.59, -5.71, -5.71, -6.95, -7.6, -6.61, -4.4, -2.75, -0.67, 0.0, 0.55, 0.57, 0.54, 1.34, 1.61, -0.0, 0.71, 1.24, 0.8, -0.0, 0.57, -0.0, -0.61, -1.13, -0.66, -0.0, 1.2, 2.4, 3.07, 2.6, 2.12, 1.34, -0.6, -1.24, -2.21, -3.07, -3.2, -4.09, -5.72, -6.32, -6.64, -3.99, -1.02, -2.28, 0.0, 4.92, 6.71, 7.6, 7.6, 7.2, 3.45, 3.0, 4.6, 4.4, 3.07, 3.02, 2.97, 2.23, 0.8, 0.0, -2.21, -3.02, -3.88, -4.8, -4.37, -3.9, -3.2, -3.76, -4.0, 0.78, 0.89, -2.33, -5.59, -4.0, -4.0, -4.02, -3.51, -3.98, -4.43, -5.69, -4.43, -2.53, -2.98, -9.01, -9.01, -9.01, -9.21, -9.58, -9.58, -9.3, -9.86, -9.86, -10.23, -10.15, -10.51, -10.8, -10.88, -10.3, -8.53, -7.3, -6.35, -6.35, -6.33, -5.17, -3.47, -1.14, 0.0, 0.0, 0.0, 0.0, 0.0, 0.0, 0.4, 0.61, 0.54, -0.0, -0.0, -0.0, -0.0, -0.0, -0.0, -0.0, -0.0, 0.59, 1.33, 1.49, 2.0, 2.8, 2.24, 0.0, -1.2, -2.86, -4.15, -4.85, -8.24, -11.21, -11.8, -11.21, -10.6, -9.16, -5.37, -4.99, 0.42, 3.45, 4.38, 5.81, 6.26, -3.48, -2.23, 0.0, 0.0, 0.0, 2.31, 5.9, 5.76, 3.78, 0.74, -0.74, -2.89, -2.9, -1.47, -1.41, -0.88, -2.0, -3.43, -5.46, -5.4, -2.87, -1.57, -0.86, -4.6, -5.81, 0.0, -0.0, -2.8, -3.97, -5.31, -5.44, -3.82, -4.02, -3.58, -9.01, -9.01, -9.01, -9.21, -9.58, -9.3, -9.66, -9.86, -9.86, -9.94, -10.15, -10.51, -10.59, -10.59, -10.3, -10.06, -8.85, -7.93, -6.98, -6.31, -5.83, -4.62, -3.53, -2.37, -1.81, -1.17, -1.16, -1.11, -1.14, -0.85, 0.0, 0.8, -0.0, -0.0, -0.0, -0.0, -0.0, -0.0, 0.85, 1.33, 1.33, 1.13, -0.0, -0.0, 1.4, 2.8, 2.68, 0.0, -0.95, -2.8, -4.15, -6.32, -3.48, -1.9, -1.26, -3.51, -5.36, -7.73, -4.94, 0.8, 1.49, 0.85, 1.58, 0.0, -1.79, -3.51, -4.98, -4.58, 0.0, 4.0, 5.06, 3.78, 2.25, 0.0, -1.4, -1.45, 0.0, 0.7, 0.88, 0.0, -1.23, -3.45, -3.97, -4.28, -4.07, -5.6, -3.25, -2.0, -2.69, 0.0, 0.0, -3.16, -3.39, -4.02, -3.58, -3.6, -3.58, -3.58, -9.01, -9.01, -9.01, -9.21, -9.58, -9.3, -9.66, -9.86, -9.86, -9.94, -9.94, -10.51, -10.23, -10.59, -10.3, -10.06, -9.48, -8.56, -7.61, -6.96, -5.83, -5.11, -4.2, -3.61, -2.45, -1.25, -0.6, -0.61, -1.22, -1.16, -1.26, -0.61, -1.26, 0.0, 0.0, 0.0, 1.34, 1.2, 1.58, 1.6, 1.33, 1.24, 1.9, 1.4, 2.53, 2.84, 2.84, 1.4, 1.79, 0.0, -1.6, -1.24, 0.0, 1.6, 1.79, 0.0, -3.2, -4.6, -1.74, 0.0, -0.0, -0.0, -0.0, 0.0, -0.89, -3.51, -5.2, -3.58, 2.0, 3.2, 1.35, 0.0, -0.74, -1.56, -1.36, 0.0, 3.16, 4.11, 3.22, 2.16, 1.73, -1.84, -2.82, -2.99, -2.47, -2.79, -4.4, -2.59, 0.0, 0.0, 0.0, -2.98, -2.4, -2.63, -3.51, -3.58, -3.58, -3.58, -9.01, -9.01, -9.01, -9.58, -9.3, -9.3, -9.66, -9.66, -9.59, -9.94, -9.94, -10.01, -10.01, -10.01, -9.72, -10.06, -9.48, -8.87, -7.96, -6.7, -5.62, -4.62, -4.2, -2.94, -1.19, 0.0, -0.59, -0.6, -1.21, -2.37, -3.07, -2.89, -1.7, -1.0, -0.63, 0.0, 0.95, 0.8, 1.58, 0.71, 1.4, 1.24, 2.53, 1.9, 2.53, 2.53, 3.2, 2.8, 2.8, 3.13, 2.68, 2.68, 3.13, 3.13, 0.0, 0.0, 0.0, 0.0, 3.58, 0.0, 0.0, 0.0, 1.9, 1.58, 0.0, -0.6, -2.24, -2.86, -2.12, -0.65, -2.09, -4.12, -4.5, -3.8, -0.59, 3.39, 5.73, 5.75, 4.89, 4.43, 4.02, 1.84, -1.58, -2.21, -2.33, -1.99, -2.51, 0.0, 0.0, -2.54, -4.6, -4.8, -2.8, -2.68, -3.2, -2.53, -1.98, -1.98, -9.01, -9.01, -9.01, -9.37, -9.3, -9.3, -9.66, -9.66, -9.59, -9.59, -9.94, -9.66, -10.01, -10.01, -10.01, -9.46, -9.48, -9.19, -7.6, -6.29, -5.14, -5.28, -4.58, -2.32, -0.58, 0.0, -1.19, -1.79, -2.4, -3.76, -5.03, -5.0, -4.24, -2.8, -1.8, 0.0, -0.0, -0.0, -0.0, -0.0, -0.0, 0.85, 0.85, 1.0, 1.9, 2.21, 3.13, 3.13, 3.13, 3.13, 3.58, 4.02, 4.02, 4.02, 4.02, 0.0, 3.16, 3.79, 4.11, 0.0, 0.0, 0.0, 4.02, 2.53, 3.16, 1.7, 0.0, -3.58, -8.05, -9.33, -8.23, -6.68, -5.06, -3.07, -0.0, 2.21, 3.58, 4.6, 4.89, 3.63, 2.76, 1.03, -1.18, -3.3, -3.6, -3.16, -3.45, -0.76, -2.2, -3.69, -5.21, -3.76, -3.39, -2.0, -2.21, -1.6, -1.16, -1.16, -9.01, -9.01, -9.01, -9.08, -9.08, -9.3, -9.66, -9.37, -9.37, -9.37, -9.94, -9.66, -9.66, -9.66, -9.66, -9.27, -9.42, -8.85, -6.98, -5.64, -5.28, -5.88, -6.43, -4.58, -3.42, -3.58, -3.65, -4.91, -5.31, -6.25, -6.57, -6.7, -5.8, -4.96, -3.72, -2.48, -1.6, -0.0, -0.0, -0.0, -0.0, -0.0, 0.0, 0.0, 2.68, 2.68, 3.13, 3.58, 3.58, 3.58, 4.02, 4.47, 4.47, 4.47, 5.36, 5.2, 3.79, 0.0, 0.0, 0.0, 0.0, 0.0, 4.02, 1.86, 3.58, 2.21, 1.34, -2.5, -5.69, -7.37, -4.74, -3.17, -2.6, -1.69, 0.0, 1.58, 2.24, 1.98, 1.84, 1.84, 0.0, -2.09, -4.66, -5.9, -6.4, -7.28, -6.82, -4.09, -5.21, -4.67, -3.72, -3.79, -3.07, -2.49, -2.5, -2.15, -1.16, -1.16, -9.01, -9.01, -8.73, -9.08, -9.08, -9.08, -9.3, -9.37, -9.37, -9.37, -9.37, -9.42, -9.42, -9.66, -10.01, -9.08, -8.78, -8.73, -8.03, -6.79, -7.13, -8.37, -9.48, -9.4, -10.01, -10.18, -9.67, -9.02, -9.02, -8.46, -7.51, -7.25, -6.58, -5.36, -5.03, -4.02, -3.63, -2.6, 0.0, 0.0, 0.0, 0.0, 1.8, 1.8, 3.2, 4.02, 3.58, 3.58, 3.58, 3.58, 3.58, 3.82, 4.47, 4.92, 2.68, 3.35, 3.97, 0.0, -1.13, -2.0, 0.0, 0.0, 1.9, 2.84, 2.6, 1.49, 1.0, 0.0, 0.0, 0.72, 2.44, 3.23, 3.5, 1.97, -1.17, -4.2, -5.69, -6.01, -1.96, -0.89, -0.95, -1.95, -4.0, -4.94, -6.01, -6.21, -3.2, 1.9, -2.53, -2.84, -3.45, -5.43, -5.05, -3.97, -3.53, -3.07, -2.51, -2.51, -8.73, -8.73, -8.73, -9.08, -9.08, -9.08, -8.78, -9.37, -9.37, -9.37, -9.37, -9.08, -9.42, -9.42, -9.72, -9.42, -8.78, -9.3, -9.94, -10.9, -10.98, -11.1, -11.39, -11.38, -12.32, -11.7, -10.43, -10.1, -9.15, -6.88, -6.73, -6.35, -5.68, -5.38, -5.08, -4.45, -3.49, -2.6, -1.52, 0.0, 0.0, 1.84, 1.98, 3.47, 3.79, 3.48, 2.53, 3.58, 3.13, 3.13, 2.8, 3.6, 4.24, 4.47, 5.36, 2.98, 4.43, 3.47, -3.48, -2.68, 0.0, 1.0, 2.53, 1.6, 1.0, 0.99, 1.2, 2.68, 3.22, 6.06, 7.64, 7.54, 6.07, 2.58, -3.07, -9.32, -11.66, -10.48, -8.23, -4.87, -2.64, -1.73, -1.95, -1.73, -2.12, -1.8, 2.8, 3.51, 1.66, 0.79, -2.53, -5.72, -6.07, -4.47, -4.02, -3.87, -3.72, -3.72, -8.73, -8.73, -8.73, -8.73, -9.08, -9.08, -8.78, -8.78, -9.12, -9.37, -9.37, -9.08, -9.42, -9.42, -9.42, -9.42, -9.42, -10.01, -11.28, -11.99, -11.7, -10.75, -10.72, -10.75, -11.06, -10.11, -8.83, -7.59, -5.21, -3.68, -4.74, -4.43, -4.74, -4.45, -4.47, -3.85, -3.47, -2.2, -1.6, 0.0, 0.0, 1.52, 2.8, 3.47, 3.22, 3.16, 3.16, 0.0, 3.13, 3.13, 2.8, 3.6, 4.02, 4.47, 4.92, 5.51, 5.64, 7.21, -0.0, -0.0, 0.71, 1.24, 1.86, 1.26, 1.2, 2.21, 2.53, 2.8, 3.13, 3.51, 5.09, 7.47, 6.9, 2.93, -8.0, -12.54, -14.64, -14.39, -12.15, -9.03, -5.69, -3.33, -1.84, -0.89, 0.0, 0.0, 1.27, 0.0, -1.23, 0.0, -2.44, -4.41, -4.52, -4.02, -3.98, -3.98, -4.0, -4.0, -8.73, -8.73, -8.73, -8.73, -9.08, -8.78, -8.78, -8.78, -9.12, -9.12, -9.12, -9.08, -9.42, -9.42, -9.42, -9.46, -9.72, -10.09, -11.03, -11.1, -10.13, -8.59, -7.6, -8.24, -9.14, -8.4, -7.48, -5.77, -3.77, -2.47, -1.95, -2.64, -3.22, -3.12, -3.22, -3.49, -2.84, -2.2, -1.19, -0.82, 0.0, 1.03, 2.32, 2.8, 3.22, 3.48, 3.48, 0.0, 2.68, 3.13, 3.58, 3.58, 4.02, 4.47, 4.92, 5.36, 4.47, 3.48, 2.4, 2.53, 2.23, 1.86, 1.7, 2.24, 3.39, 4.24, 3.58, 2.24, 2.24, 1.7, 0.95, 0.0, 0.75, 0.0, -2.68, -9.58, -13.23, -14.71, -14.58, -13.15, -9.36, -6.18, -3.91, -2.4, -2.6, -1.55, -1.66, -2.79, -5.24, -6.88, -4.67, -3.78, -3.97, -3.39, -3.87, -4.43, -4.11, -4.11, -8.73, -8.73, -8.73, -8.73, -8.73, -8.78, -8.78, -8.78, -8.78, -9.12, -8.82, -8.82, -9.08, -9.42, -9.13, -9.46, -9.77, -10.12, -10.75, -10.13, -9.21, -7.8, -6.92, -6.76, -7.16, -7.53, -7.06, -5.96, -5.03, -3.82, -2.76, -2.01, -2.18, -2.35, -2.47, -2.8, -2.04, -1.88, -1.3, -0.67, 0.0, 0.0, 2.12, 1.98, 2.99, 2.95, 2.4, 0.0, 1.6, 2.84, 3.6, 4.02, 4.02, 4.02, 4.47, 4.47, 2.24, 1.58, -0.0, 4.02, 3.13, 1.58, 1.79, 3.13, 4.34, 4.77, 4.02, 5.36, 2.24, 1.34, -1.2, -4.22, -2.31, 0.0, -1.0, -3.58, -8.6, -11.87, -13.28, -13.47, -11.87, -9.13, -7.2, -6.55, -6.32, -5.95, -5.49, -7.58, -7.69, -5.06, -4.43, -4.8, -4.02, -3.95, -3.53, -4.44, -4.77, -4.77, -8.73, -8.73, -8.73, -8.73, -8.49, -8.45, -8.78, -8.78, -8.78, -9.12, -8.82, -8.82, -8.82, -8.85, -9.13, -9.46, -9.77, -10.12, -10.13, -9.5, -8.85, -8.46, -7.53, -6.88, -6.43, -6.43, -6.43, -5.96, -5.69, -4.98, -3.77, -3.15, -1.93, -2.01, -1.52, -1.58, -1.49, -0.79, -0.74, 0.0, 0.0, 0.83, 1.73, 1.84, 2.47, 1.84, 1.84, 0.88, 0.81, 1.83, 2.68, 4.4, 3.6, 3.58, 3.58, 3.58, 3.58, 1.2, -0.0, 0.0, 0.0, 0.0, 0.0, 2.97, 4.34, 4.47, 4.02, 4.47, 3.2, -0.89, -3.2, -4.36, -2.1, 0.0, 0.82, 0.0, 0.0, -2.86, -7.67, -10.48, -12.45, -11.39, -10.0, -8.99, -7.53, -7.12, -7.35, -7.03, -4.52, -3.9, 0.0, 0.0, -5.81, -4.77, -3.97, -4.77, -4.3, -4.3, -8.73, -8.73, -8.73, -8.49, -8.19, -8.19, -8.52, -8.52, -8.78, -9.12, -8.82, -8.82, -8.82, -8.85, -9.13, -9.17, -9.19, -9.5, -9.5, -9.21, -9.14, -8.85, -8.43, -7.5, -7.06, -6.4, -5.77, -5.8, -5.5, -5.55, -4.86, -3.63, -2.99, -2.35, -1.81, -1.26, -1.29, -0.71, 0.0, 0.0, 0.0, 0.76, 0.76, 1.65, 1.73, 1.63, 1.63, 1.52, 0.78, 1.6, 1.7, 2.2, 2.0, 3.2, 3.2, 3.58, 3.13, 2.68, 0.89, -1.79, -3.13, 0.0, 0.0, 2.4, 2.54, 3.39, 3.9, 3.47, 0.8, -0.89, -2.91, -4.43, -2.31, 0.0, 2.25, 4.65, 4.75, 0.0, -3.16, -8.0, -11.6, -12.27, -11.5, -9.6, -6.02, -4.73, -5.75, -3.95, -2.21, -0.98, -2.84, 0.0, -4.71, -4.02, -4.54, -4.0, -3.87, -3.87, -8.73, -8.73, -8.73, -8.19, -8.19, -8.19, -8.52, -8.52, -8.52, -8.52, -8.82, -8.82, -8.82, -8.85, -8.85, -8.87, -8.87, -9.5, -8.87, -8.86, -8.86, -8.46, -8.18, -7.5, -7.06, -6.4, -5.96, -5.32, -4.81, -4.86, -4.68, -4.02, -4.05, -3.53, -2.87, -2.35, -1.71, -1.15, -1.16, -0.59, 0.0, 0.0, 0.0, 1.58, 1.49, 1.49, 1.49, 1.4, 0.74, 0.78, 0.82, 1.55, 2.0, 1.98, 1.6, 1.34, 2.24, 2.0, 1.34, 0.0, -2.24, -3.2, 0.0, 1.79, 4.47, 2.24, 2.0, 0.6, -0.0, -1.34, -2.91, -3.84, -4.03, -2.35, 0.78, 4.4, 4.39, 1.91, -2.07, -6.36, -9.32, -11.9, -11.9, -8.93, -7.06, -6.61, -4.47, -1.6, -0.0, -1.6, -3.82, -4.43, -5.69, -5.31, -4.74, -3.48, -3.43, -3.43, -8.45, -8.45, -8.19, -8.19, -8.19, -8.19, -8.19, -8.52, -8.52, -8.52, -8.53, -8.53, -8.53, -8.53, -8.56, -8.87, -8.58, -8.59, -8.87, -8.59, -8.49, -8.2, -8.2, -7.53, -7.06, -6.4, -5.73, -5.28, -4.62, -4.65, -3.99, -3.5, -3.37, -3.39, -3.42, -2.9, -2.35, -2.25, -1.73, -1.16, -0.59, 0.0, 0.0, 0.71, 0.67, 1.32, 0.71, 0.69, 0.71, 0.0, 0.72, 0.88, 0.88, 0.98, 2.21, 0.95, 1.79, 1.34, 1.2, 1.2, 0.0, -2.8, 0.0, 2.4, 2.68, 4.92, 0.8, -0.0, -0.6, -1.79, -2.4, -2.84, -4.65, -4.36, -2.0, -0.71, -0.72, 0.0, -1.16, -4.41, -7.2, -10.91, -11.54, -8.93, -7.15, -7.37, -2.68, -1.6, -1.98, -3.07, -4.43, -4.92, -4.8, -6.18, -6.18, -4.74, -4.11, -4.11, -8.45, -8.45, -8.19, -8.19, -8.19, -8.19, -8.19, -8.52, -8.52, -8.52, -8.22, -8.53, -8.24, -8.24, -8.56, -8.56, -8.58, -8.59, -8.23, -8.22, -8.22, -7.95, -7.55, -7.53, -7.1, -6.43, -5.73, -5.28, -4.62, -4.1, -4.13, -3.99, -3.5, -3.37, -2.87, -2.9, -2.9, -2.25, -1.81, -1.81, -1.24, -0.64, -0.65, 0.0, 0.0, 1.36, 1.4, 0.0, 0.0, 0.0, 0.0, 0.0, 1.19, 1.41, 1.6, 2.21, 0.0, 0.89, 1.2, 1.2, -0.0, 0.0, 0.0, 1.79, 2.68, 2.68, 1.9, 0.6, -0.0, -1.6, -1.86, -2.3, -3.27, -5.3, -8.68, -8.27, -5.49, -2.0, -1.24, -2.6, -3.22, -9.92, -11.52, -9.8, -6.64, -4.8, -1.74, -3.45, -4.73, -4.87, -5.32, -6.26, -6.58, -6.0, -6.44, -6.06, -5.38, -5.38, -8.19, -8.19, -8.19, -8.19, -8.19, -8.19, -8.19, -8.19, -8.52, -8.52, -8.22, -8.22, -8.24, -8.24, -7.95, -8.24, -8.24, -8.24, -8.23, -7.96, -8.22, -7.83, -7.31, -7.13, -7.13, -6.43, -5.77, -5.28, -4.62, -4.1, -4.1, -3.96, -3.47, -3.5, -2.84, -2.87, -2.35, -2.35, -2.49, -1.81, -1.93, -1.33, -1.36, -0.73, 0.0, 0.0, 0.0, 0.0, -0.76, 0.0, 0.0, 0.0, 1.55, 2.0, 1.8, 2.53, 1.9, 1.79, 1.2, 1.26, 0.8, 0.0, 0.0, -0.0, 1.34, 1.79, 2.68, 0.89, -0.0, -2.0, -3.07, -3.07, -1.52, -2.41, -8.01, -9.8, -8.16, -4.11, -1.88, -0.71, -2.15, -7.87, -10.12, -10.48, -8.76, -3.72, -3.6, -4.02, -4.92, -6.67, -7.57, -8.05, -8.47, -7.28, -7.33, -7.17, -6.35, -6.35, -8.19, -8.19, -8.19, -8.19, -8.19, -8.19, -8.19, -8.19, -8.19, -8.22, -8.22, -8.22, -7.93, -8.24, -7.95, -8.24, -7.96, -8.24, -7.96, -7.85, -7.57, -7.57, -7.16, -6.9, -6.9, -6.46, -6.0, -5.11, -4.1, -4.07, -4.07, -4.1, -4.13, -3.47, -3.37, -2.84, -2.87, -2.23, -2.35, -1.89, -1.93, -1.3, -1.33, -1.4, -1.36, -1.14, -1.05, -0.67, 0.0, 0.0, 0.0, 1.6, 1.8, 3.16, 2.84, 2.53, 2.21, 2.68, 1.6, 1.26, -0.0, -0.0, -0.0, 0.4, 1.34, 1.34, 0.0, -0.89, -1.0, -2.21, -3.82, -3.82, -1.41, 0.0, -1.57, -6.47, -8.72, -6.31, -2.73, -1.8, -2.23, -4.46, -9.19, -10.18, -9.48, -7.51, -5.94, -3.79, -4.66, -4.02, -4.88, -4.88, -5.36, -5.24, -8.06, -7.73, -6.25, -6.25, -8.19, -8.19, -8.19, -8.19, -8.19, -8.19, -8.19, -8.19, -7.6, -7.6, -7.91, -7.91, -7.91, -8.24, -7.95, -7.95, -7.6, -7.6, -7.59, -7.59, -6.92, -6.92, -7.16, -6.9, -6.46, -6.25, -5.8, -5.83, -4.48, -4.13, -4.58, -4.1, -3.96, -3.47, -3.5, -2.84, -2.87, -2.33, -2.23, -2.35, -1.81, -1.93, -1.33, -1.36, -2.17, -2.28, -2.11, -0.67, 0.0, 0.0, 0.0, 0.7, 0.87, 1.98, 2.21, 3.13, 2.68, 2.24, 1.58, 1.24, -0.0, -0.6, -0.0, 0.95, 1.7, 2.24, 0.45, -1.6, -2.86, -2.41, -3.07, -3.13, -3.04, -1.01, 0.0, -1.59, -6.4, -7.26, -5.21, -4.07, -3.4, -2.53, -3.48, -7.18, -8.37, -8.38, -6.94, -5.62, -3.47, -4.65, -4.02, -2.21, -3.13, -2.98, -5.44, -5.82, -5.95, -5.95, -8.19, -8.19, -8.19, -8.19, -8.19, -8.19, -8.19, -7.9, -7.6, -7.6, -7.6, -7.91, -7.91, -7.61, -7.61, -7.61, -7.33, -7.6, -7.33, -6.94, -7.19, -6.92, -6.92, -6.92, -6.5, -6.5, -6.04, -5.8, -5.8, -4.65, -4.68, -3.99, -3.99, -3.5, -3.5, -3.37, -2.84, -2.87, -2.33, -2.35, -1.79, -1.81, -1.93, -1.97, -1.97, -2.11, -1.5, -0.69, 0.0, 0.0, 0.0, 0.0, 0.0, 0.79, 0.87, 1.4, 1.9, 2.24, 1.58, 1.0, -0.0, -0.0, -0.0, 1.6, 2.17, 2.6, 2.12, 0.0, -1.9, -1.49, -1.26, -2.24, -3.58, -4.11, -3.04, -1.59, -1.68, -2.86, -3.14, -3.32, -1.75, 0.0, 0.0, -1.25, -4.4, -5.77, -6.14, -5.92, -4.0, -3.2, -1.7, 3.13, 2.4, 2.53, 0.0, -3.45, -2.12, -2.12, -8.15, -8.15, -8.19, -8.19, -8.19, -8.19, -8.19, -7.9, -7.6, -7.6, -7.6, -7.6, -7.91, -7.61, -7.61, -7.61, -7.61, -7.33, -7.22, -6.94, -6.94, -6.92, -6.92, -6.5, -6.5, -6.5, -6.5, -6.25, -6.46, -5.57, -4.48, -4.02, -3.5, -3.5, -3.37, -3.37, -2.99, -2.87, -2.87, -2.35, -2.35, -1.81, -1.81, -1.93, -1.97, -2.06, -1.39, -1.43, -0.69, -0.71, 0.0, 0.0, 0.0, 0.0, 0.0, 0.0, 1.13, 2.21, 1.58, 1.58, -0.0, -0.0, 1.79, 1.79, 2.12, 1.86, 1.86, 1.2, 0.0, -0.89, -0.63, -1.2, -3.04, -7.69, -7.69, -4.66, -0.75, 0.0, 0.0, 0.0, 0.0, 0.0, 0.0, -1.16, -2.52, -3.44, -4.71, -4.46, -2.94, -2.17, 0.0, 1.24, 1.7, 2.8, 1.41, 0.0, 0.0, 0.0, -8.15, -8.15, -7.86, -7.86, -7.86, -8.19, -7.9, -7.9, -7.6, -7.6, -7.6, -7.6, -7.6, -7.32, -7.61, -7.33, -7.61, -6.96, -6.96, -6.94, -6.94, -6.94, -6.68, -6.5, -6.5, -6.27, -6.5, -5.8, -5.8, -5.8, -4.65, -4.48, -4.17, -3.5, -3.5, -3.37, -3.53, -2.87, -2.87, -2.9, -2.35, -2.39, -1.81, -1.93, -1.93, -1.93, -2.06, -1.33, -1.43, -0.74, -0.77, 0.0, 0.0, 0.0, 0.0, 0.0, 0.0, 0.0, 0.0, 2.68, 1.58, 1.58, 0.95, 2.0, 1.79, 1.26, 0.95, 0.6, -0.0, -0.95, -1.2, -1.79, -3.22, -7.08, -7.69, -4.71, 0.0, 4.36, 5.11, 2.62, 0.0, -1.71, -2.93, -3.29, -2.45, -2.72, -2.89, -2.81, 0.0, 0.0, 1.23, 1.8, 1.9, 1.49, 1.27, 1.3, 1.4, 1.4, -8.15, -8.15, -8.15, -7.86, -7.86, -7.59, -7.59, -7.59, -7.3, -7.6, -7.6, -7.6, -7.32, -7.32, -7.32, -7.61, -7.33, -6.96, -6.96, -7.22, -6.94, -6.94, -6.53, -6.27, -6.27, -6.27, -6.27, -6.04, -5.8, -5.32, -5.14, -5.14, -4.48, -4.02, -3.5, -3.37, -3.53, -3.39, -2.87, -2.9, -2.35, -2.39, -1.73, -1.3, -1.3, -1.36, -2.02, -2.06, -1.43, -1.54, -0.81, -0.85, -0.89, -0.84, -0.89, -0.95, -0.96, 0.0, 0.0, 2.21, 3.13, 1.58, 1.26, 1.26, 0.89, 0.0, 0.63, 1.2, 1.2, -0.0, -0.95, -1.79, -1.4, -1.62, -2.45, -2.37, 0.0, 2.39, 2.3, 0.71, -0.69, -2.44, -3.39, -4.8, -1.76, 0.0, 0.0, 0.0, 0.67, 1.3, 1.88, 1.94, 1.49, 1.4, 0.87, 1.19, 1.23, 1.23, -8.15, -8.15, -8.15, -7.86, -7.86, -7.59, -7.59, -7.59, -7.3, -7.6, -7.6, -7.6, -7.32, -7.32, -7.32, -7.61, -7.33, -7.24, -6.96, -6.96, -6.94, -6.94, -6.53, -6.53, -6.27, -6.27, -5.83, -5.83, -5.83, -5.6, -5.14, -5.36, -4.68, -4.51, -4.02, -3.5, -3.37, -3.53, -2.87, -3.03, -3.07, -2.39, -1.84, -0.89, -0.64, -1.3, -2.02, -2.15, -2.21, -1.54, -1.6, -0.85, -0.89, -0.84, -0.94, -0.89, -0.89, -0.96, 0.0, 0.0, 1.6, 3.58, 1.58, 0.6, 0.89, 2.24, 1.34, 1.7, 1.7, 1.2, -0.0, -0.95, 0.0, 1.14, 0.0, -2.31, -3.29, -3.73, -3.98, -4.23, -2.76, -1.5, -2.21, -1.95, 0.0, 1.32, 1.07, 0.7, 1.35, 1.47, 1.41, 2.11, 1.23, 0.88, 0.7, 0.0, 0.0, 1.14, -8.15, -8.15, -8.15, -8.15, -7.59, -7.59, -7.59, -7.59, -7.3, -7.6, -7.6, -7.6, -7.32, -7.32, -7.32, -7.61, -7.61, -6.97, -6.96, -6.96, -6.96, -6.7, -6.53, -6.53, -6.53, -6.27, -5.83, -5.83, -5.83, -5.36, -5.36, -5.17, -4.68, -4.51, -4.02, -4.21, -3.53, -3.53, -3.53, -3.03, -3.07, -2.39, -2.3, -1.67, -0.61, -1.36, -2.19, -2.25, -2.31, -1.62, -1.6, -1.67, -1.58, -0.84, -0.84, -1.73, -1.63, -1.6, -0.88, 0.0, 0.0, 0.0, 0.0, 0.63, 0.89, 2.24, 1.58, 1.7, 1.79, 1.79, 1.34, -0.0, -0.89, 0.0, 0.0, -1.51, -3.95, -7.12, -7.84, -7.11, -4.7, -2.11, -0.89, 0.0, 1.83, 1.41, 1.19, 1.3, 1.3, 1.47, 1.3, 1.3, 1.3, 1.6, 0.0, 0.0, 0.0, 0.0, -8.15, -8.15, -8.15, -8.15, -7.59, -7.59, -7.59, -7.59, -7.3, -7.3, -7.6, -7.6, -7.6, -7.32, -7.32, -7.61, -7.61, -7.33, -7.24, -6.96, -6.96, -6.96, -6.7, -6.29, -6.29, -6.53, -5.83, -5.83, -5.83, -5.36, -5.17, -5.17, -4.51, -4.72, -4.54, -4.05, -4.05, -3.53, -3.53, -3.03, -3.2, -3.07, -2.97, -2.33, -1.75, -2.1, -2.37, -2.51, -2.49, -1.54, -1.6, -1.52, -1.58, -1.65, -1.65, -1.55, -1.63, -1.47, -1.55, -0.88, 0.0, 0.0, 0.0, 0.0, 2.24, 0.0, -0.0, 0.95, 1.79, 1.79, 1.34, -1.2, -2.68, -2.95, -1.07, 1.5, 1.45, -1.6, -5.4, -6.27, -4.92, -2.97, -0.89, 0.89, 1.94, 2.04, 2.12, 1.45, 1.52, 1.52, 1.3, 1.3, 1.41, 0.79, 0.0, 0.0, -1.05, 0.0, -8.15, -8.15, -8.15, -8.15, -7.59, -7.59, -7.59, -7.59, -7.59, -7.3, -7.6, -7.6, -7.6, -7.32, -7.32, -7.61, -7.61, -7.33, -6.97, -6.96, -6.96, -6.96, -6.96, -6.29, -6.29, -6.29, -5.86, -5.62, -5.62, -5.17, -5.17, -4.98, -4.72, -4.54, -4.54, -4.05, -4.26, -3.72, -3.72, -3.03, -3.2, -3.07, -3.11, -2.97, -3.87, -3.06, -2.51, -1.68, -1.52, -1.52, -1.52, -1.67, -1.58, -1.49, -1.49, -1.55, -1.45, -1.6, -1.7, -0.96, -1.19, 0.0, 0.0, 0.0, 0.0, 0.0, 0.0, 3.13, 1.79, 1.34, 1.34, -1.79, -3.58, -4.15, -1.49, 0.0, 2.28, 0.76, -1.54, -4.0, -3.47, -1.41, 0.0, 1.55, 2.18, 1.49, 1.4, 1.4, 1.49, 1.4, 0.74, 0.69, 0.69, 0.0, 0.0, 0.0, -1.32, -1.32, -8.15, -8.15, -8.15, -8.15, -7.88, -7.59, -7.59, -7.59, -7.59, -7.59, -7.6, -7.6, -7.6, -7.32, -7.32, -7.61, -7.61, -7.61, -7.33, -7.24, -6.96, -6.96, -6.96, -6.56, -6.29, -6.29, -5.86, -5.86, -5.86, -5.17, -5.17, -4.72, -4.72, -4.54, -4.05, -4.26, -4.26, -3.57, -3.57, -3.2, -3.2, -3.07, -3.07, -3.25, -3.92, -3.82, -2.15, -1.32, -1.28, -0.65, -0.69, -0.8, -1.58, -2.31, -2.18, -2.18, -2.12, -2.2, -1.6, -1.7, -1.05, -1.19, 0.0, 0.0, 0.0, 0.0, 3.13, 2.68, 1.79, 1.79, 0.0, -2.24, -3.58, -3.82, -3.74, -3.91, -1.47, 0.0, 0.0, 0.0, 0.0, 1.49, 2.69, 3.02, 2.31, 1.54, 0.69, 0.71, 0.0, 0.0, 0.0, 0.0, 0.0, 0.0, 0.0, -1.4, -1.4, -1.4, -8.15, -8.15, -8.15, -8.15, -7.88, -7.59, -7.59, -7.59, -7.59, -7.59, -7.3, -7.6, -7.6, -7.6, -7.32, -7.61, -7.61, -7.61, -7.61, -6.97, -6.97, -6.7, -6.96, -6.56, -6.56, -6.29, -6.29, -5.86, -5.86, -5.4, -5.2, -4.72, -4.54, -4.54, -4.26, -4.26, -4.08, -3.57, -3.77, -3.77, -3.07, -3.07, -3.07, -3.25, -2.76, -2.88, -2.02, -1.78, -1.16, -1.09, -0.59, -0.65, -0.76, -1.65, -2.4, -2.4, -2.26, -2.12, -2.47, -1.84, -1.7, -1.05, -1.19, 0.0, 0.0, 0.0, 3.13, 2.68, 1.79, 1.34, 0.0, -2.24, -3.58, -4.43, -6.13, -7.07, -5.13, -2.39, 0.0, 2.44, 5.29, 7.54, 6.9, 4.61, 3.04, 1.52, 0.77, 0.0, 0.0, 0.0, 0.0, 0.0, 0.0, -0.89, -0.99, -1.11, -1.11, -1.11, -8.15, -8.15, -8.15, -8.15, -8.15, -7.59, -7.59, -7.59, -7.59, -7.59, -7.3, -7.6, -7.6, -7.6, -7.32, -7.32, -7.61, -7.61, -7.61, -6.97, -6.97, -6.97, -6.7, -6.31, -6.31, -6.31, -6.06, -5.64, -5.64, -5.2, -5.2, -5.2, -4.54, -4.54, -4.26, -4.26, -4.08, -3.57, -3.61, -3.61, -3.07, -3.07, -3.07, -2.65, -2.65, -2.65, -1.93, -1.84, -1.78, -1.69, -1.16, -1.1, -0.61, -0.71, -1.65, -2.4, -2.9, -2.72, -2.2, -2.47, -1.84, -1.7, -1.05, -1.08, 0.0, 0.0, 3.13, 1.34, 1.79, 0.95, 0.0, -1.79, -3.58, -5.09, -5.43, -4.12, -3.72, -1.52, 0.0, 5.11, 10.83, 11.27, 8.4, 5.23, 3.17, 1.58, 1.54, 0.85, 0.0, 0.0, -1.2, -0.78, -0.79, -1.84, -1.84, -2.06, -2.06, -2.06, -8.15, -8.15, -8.15, -8.15, -8.15, -7.86, -7.59, -7.59, -7.59, -7.59, -7.59, -7.3, -7.6, -7.6, -7.6, -7.32, -7.32, -7.32, -7.32, -7.61, -6.97, -6.97, -6.97, -6.31, -6.31, -6.31, -5.89, -5.89, -5.64, -5.2, -5.2, -5.0, -4.54, -4.54, -4.26, -4.08, -4.08, -3.57, -3.61, -3.61, -3.07, -3.07, -3.25, -2.65, -2.65, -2.82, -2.7, -2.42, -2.46, -1.78, -1.69, -1.16, -1.18, -1.2, -1.4, -2.26, -2.26, -2.9, -2.72, -2.2, -2.29, -1.6, -1.7, -0.96, -0.98, 0.0, 0.0, 1.34, 1.34, 0.63, -1.34, -2.24, -2.6, -3.32, -2.5, -1.49, -0.61, 0.0, 1.62, 6.7, 10.84, 10.73, 6.84, 4.67, 3.17, 2.34, 0.79, 0.0, 0.0, -1.16, -1.18, -1.35, -1.52, -1.73, -2.67, -2.67, -2.67, -2.67, -7.86, -7.86, -7.86, -7.86, -7.86, -7.86, -7.59, -7.59, -7.59, -7.59, -7.59, -7.3, -7.3, -7.6, -7.6, -7.6, -7.32, -7.32, -7.32, -6.98, -6.71, -6.71, -6.33, -6.33, -6.58, -6.31, -5.89, -5.89, -5.89, -5.44, -5.23, -5.23, -4.76, -4.76, -4.76, -4.08, -4.08, -3.57, -3.61, -3.61, -3.07, -3.07, -3.25, -2.53, -2.53, -2.53, -2.7, -2.58, -2.46, -2.46, -2.33, -1.69, -1.71, -1.18, -1.32, -1.55, -2.26, -2.9, -2.72, -3.0, -2.2, -2.29, -1.47, -1.55, -0.88, 0.0, 0.0, 0.0, 0.0, 0.0, -1.79, -2.24, -2.24, -2.24, -2.24, 0.0, 0.0, 1.03, 4.95, 7.42, 8.38, 6.47, 5.69, 6.11, 5.56, 2.97, 0.0, -0.75, -0.89, -1.47, -1.41, -2.2, -2.11, -2.47, -3.0, -3.0, -3.0, -3.0, -7.86, -7.86, -7.86, -7.86, -7.86, -7.86, -7.86, -7.59, -7.59, -7.59, -7.59, -7.59, -7.3, -7.3, -7.6, -7.6, -7.6, -7.32, -6.98, -6.98, -6.98, -6.71, -6.33, -6.33, -6.33, -6.33, -5.67, -5.67, -5.67, -5.23, -5.23, -5.23, -4.76, -4.76, -4.57, -4.08, -4.08, -3.61, -3.61, -3.61, -3.07, -2.93, -3.11, -3.11, -2.53, -2.53, -2.42, -2.42, -2.46, -2.46, -2.33, -2.33, -2.37, -1.71, -1.2, -1.32, -1.45, -2.35, -3.0, -2.8, -2.8, -2.29, -2.11, -1.35, -0.73, 0.0, 0.0, 0.0, 0.0, 0.0, 0.0, -0.95, -1.6, -0.8, -1.26, 0.0, 0.0, 2.21, 5.2, 6.4, 4.95, 4.58, 7.4, 9.09, 7.5, 4.17, 0.75, -0.78, -0.67, -0.67, -1.23, -2.0, -2.73, -3.22, -3.11, -3.55, -3.55, -3.55, -7.86, -7.86, -7.86, -7.86, -7.86, -7.86, -7.59, -7.59, -7.59, -7.59, -7.59, -7.59, -7.59, -7.3, -7.3, -7.3, -7.6, -7.27, -6.98, -6.98, -6.98, -6.61, -6.61, -6.33, -6.33, -5.92, -5.92, -5.67, -5.67, -5.23, -5.23, -5.23, -4.57, -4.57, -4.57, -4.08, -4.3, -4.12, -3.61, -3.61, -3.61, -2.93, -3.11, -3.11, -3.11, -3.11, -2.97, -2.42, -2.3, -2.46, -2.33, -2.33, -2.37, -2.37, -1.73, -1.93, -1.36, -2.2, -2.2, -2.8, -2.8, -2.6, -2.66, -1.94, -1.41, -1.27, 0.0, 0.0, 1.58, 1.79, 0.0, 0.0, -0.8, -0.8, -0.8, -0.0, 2.24, 2.24, 2.91, 3.49, 3.22, 3.91, 6.97, 7.82, 6.42, 3.53, 0.0, -1.13, -0.57, 0.0, -0.64, -1.94, -2.48, -2.98, -3.43, -3.64, -3.64, -3.64, -7.86, -7.86, -7.86, -7.86, -7.86, -7.86, -7.59, -7.59, -7.59, -7.59, -7.59, -7.59, -7.59, -7.3, -7.3, -6.98, -6.98, -6.98, -6.98, -6.98, -6.98, -6.61, -6.61, -6.61, -6.33, -5.92, -5.92, -5.92, -5.48, -5.48, -5.02, -4.57, -4.57, -4.57, -4.3, -4.12, -4.12, -4.12, -3.61, -3.61, -3.61, -3.65, -3.11, -3.11, -3.11, -2.97, -2.97, -2.83, -2.83, -2.46, -2.33, -2.33, -2.5, -2.23, -2.26, -2.29, -1.93, -1.98, -2.04, -2.6, -2.6, -2.88, -2.66, -2.66, -2.73, -2.48, -1.6, 0.0, 0.0, 0.0, 0.0, 0.0, 0.0, -0.8, -0.57, -0.0, -0.0, 1.6, 1.79, 1.9, 2.07, 3.35, 4.36, 3.95, 3.1, 0.74, 0.0, -1.33, -1.61, -1.23, -1.36, -2.12, -2.66, -3.15, -3.43, -3.72, -3.72, -3.72, -7.86, -7.86, -7.86, -7.86, -7.86, -7.86, -7.59, -7.59, -7.59, -7.59, -7.59, -7.59, -7.59, -7.28, -6.98, -6.98, -6.98, -6.98, -6.98, -6.98, -6.7, -6.61, -6.61, -6.61, -6.2, -5.69, -5.69, -5.26, -5.26, -5.26, -5.26, -4.8, -4.8, -4.6, -4.12, -4.12, -4.12, -4.12, -4.12, -3.61, -3.82, -3.65, -3.65, -3.65, -2.97, -3.16, -3.01, -3.01, -3.01, -2.86, -2.33, -2.33, -2.5, -2.37, -2.4, -2.6, -2.66, -2.12, -2.2, -2.6, -2.88, -2.88, -3.12, -3.12, -3.43, -3.07, -2.84, -2.8, -1.79, -1.2, -0.6, 0.0, 0.0, 0.0, -0.0, -0.0, -0.0, 1.24, 1.2, 0.8, 1.4, 2.23, 2.3, 0.8, -0.74, -0.76, 0.0, -1.33, -2.21, -2.23, -2.66, -2.82, -2.8, -3.48, -3.48, -3.79, -3.79, -3.79, -7.86, -7.86, -7.86, -7.86, -7.86, -7.59, -7.59, -7.59, -7.59, -7.59, -7.59, -7.27, -7.28, -7.28, -7.28, -6.98, -6.98, -6.98, -6.98, -6.63, -6.63, -6.34, -6.34, -6.34, -5.95, -5.95, -5.95, -5.26, -5.26, -5.26, -4.8, -4.8, -4.6, -4.6, -4.12, -4.12, -4.12, -4.12, -4.12, -3.61, -3.82, -3.82, -3.65, -3.65, -3.87, -3.7, -3.01, -3.01, -2.86, -2.86, -2.86, -2.86, -2.37, -2.54, -3.09, -2.92, -3.14, -2.66, -2.72, -2.8, -2.88, -2.88, -3.38, -3.38, -3.72, -4.11, -3.58, -3.39, -2.24, -2.6, -1.9, -2.23, -2.68, -1.2, 0.0, -0.0, -0.0, 1.0, 0.89, 0.0, 0.8, 1.88, 1.27, -1.63, -1.5, -1.5, -0.93, -0.96, -2.8, -2.79, -3.15, -3.47, -3.55, -3.48, -3.49, -3.83, -3.83, -3.83, -7.86, -7.86, -7.86, -7.86, -7.59, -7.59, -7.59, -7.59, -7.27, -7.27, -7.27, -7.27, -6.97, -6.97, -7.28, -6.98, -6.98, -6.98, -6.63, -6.63, -6.63, -6.63, -6.34, -5.95, -5.95, -5.95, -5.95, -5.52, -5.26, -5.26, -4.6, -4.6, -4.6, -4.6, -4.12, -4.12, -4.12, -4.12, -4.12, -3.61, -3.82, -3.65, -3.65, -3.65, -3.87, -3.7, -3.52, -3.52, -2.86, -2.86, -2.86, -2.86, -2.89, -3.09, -2.92, -3.14, -3.14, -3.4, -3.47, -3.0, -2.8, -3.64, -3.64, -3.64, -4.07, -4.43, -4.46, -4.8, -2.68, -2.68, -2.97, -3.39, -3.47, -2.68, -2.12, 0.0, -0.0, -0.0, 0.0, 0.0, 0.0, 0.57, 0.0, 0.0, 0.0, 0.0, -0.89, -2.66, -3.47, -3.07, -3.16, -3.97, -4.03, -3.35, -3.16, -4.0, -4.0, -4.0, -8.15, -8.15, -7.59, -7.59, -7.59, -7.59, -7.59, -7.27, -7.27, -7.27, -7.27, -6.97, -6.97, -6.97, -6.97, -6.97, -6.69, -6.63, -6.63, -6.63, -6.63, -6.63, -6.63, -5.95, -5.95, -5.95, -5.95, -5.29, -5.29, -5.04, -4.6, -4.6, -4.6, -4.6, -4.12, -4.12, -4.12, -4.12, -4.12, -4.12, -3.65, -3.65, -3.65, -3.65, -3.7, -3.7, -3.52, -3.52, -3.35, -3.35, -3.35, -2.86, -2.89, -2.92, -2.92, -3.14, -3.14, -3.91, -3.4, -3.47, -3.55, -3.9, -3.64, -4.07, -4.36, -4.74, -5.46, -5.05, -3.04, -2.54, -2.21, -2.68, -3.04, -3.13, -2.24, -2.24, -2.12, -2.24, -2.17, -1.7, -1.34, -0.95, 0.0, 0.0, 0.78, 0.8, 0.0, -2.4, -3.58, -3.82, -4.46, -4.46, -3.99, -3.22, -2.95, -3.48, -3.48, -3.48, -7.55, -7.55, -7.55, -7.88, -7.59, -7.27, -7.27, -7.27, -7.27, -7.27, -6.97, -6.97, -6.97, -6.97, -6.97, -6.97, -6.97, -6.35, -6.35, -6.35, -6.35, -6.63, -6.63, -5.95, -5.95, -5.7, -5.7, -5.29, -5.29, -5.29, -4.84, -4.6, -4.6, -4.6, -4.6, -4.12, -4.12, -3.94, -4.16, -4.16, -4.16, -3.65, -3.65, -3.65, -3.7, -3.7, -3.52, -3.52, -3.35, -3.35, -3.35, -3.35, -3.37, -3.4, -3.4, -3.64, -3.64, -3.64, -3.91, -3.97, -3.97, -4.29, -4.36, -4.36, -4.36, -5.09, -5.09, -5.82, -5.75, -3.82, -1.9, 0.0, -2.24, -3.07, -2.24, -1.79, -2.24, -3.13, -3.58, -3.13, -2.68, -2.5, -1.8, -0.76, 0.0, 0.0, 0.0, -0.88, -3.13, -4.02, -4.46, -4.58, -3.55, -3.0, -3.22, -2.6, -2.6, -2.6, -7.55, -7.55, -7.55, -7.55, -7.55, -7.55, -7.27, -7.27, -7.27, -7.27, -6.97, -6.97, -6.97, -6.97, -6.97, -6.97, -6.64, -6.64, -6.35, -6.35, -6.35, -6.35, -6.35, -5.98, -5.7, -5.7, -5.7, -5.29, -5.29, -5.29, -5.29, -4.84, -4.84, -4.6, -4.6, -4.6, -4.35, -4.16, -4.16, -4.16, -4.16, -4.16, -4.16, -3.49, -3.7, -3.7, -3.52, -3.52, -3.35, -3.35, -3.35, -3.56, -3.37, -3.6, -3.4, -3.64, -3.64, -3.91, -3.91, -3.91, -3.97, -3.97, -4.29, -4.65, -5.06, -5.06, -5.43, -5.82, -6.16, -4.34, -2.4, -2.0, -1.79, -2.8, -2.23, -1.79, -1.79, -2.68, -3.58, -3.58, -3.58, -3.39, -3.49, -2.88, -1.44, 0.0, 0.0, 0.0, -2.21, -3.13, -3.82, -3.45, -2.98, -3.2, -3.22, -1.8, -1.8, -1.8, -7.55, -7.55, -7.55, -7.55, -7.55, -7.55, -7.55, -7.55, -7.27, -7.27, -6.97, -6.97, -6.97, -6.97, -6.97, -6.97, -6.64, -6.64, -6.64, -6.35, -6.35, -6.35, -6.35, -5.98, -5.98, -5.98, -5.98, -5.7, -5.29, -5.29, -5.29, -5.29, -4.84, -4.84, -4.84, -4.63, -4.63, -4.16, -4.16, -4.16, -4.16, -4.16, -3.97, -3.97, -4.2, -4.2, -4.0, -4.0, -3.8, -4.03, -4.03, -4.03, -3.37, -3.6, -3.4, -3.64, -4.08, -4.36, -4.36, -4.36, -4.39, -4.39, -4.39, -4.71, -5.06, -5.06, -5.06, -5.43, -6.21, -5.2, -3.9, -2.6, -2.24, -2.4, -3.2, -3.04, -2.68, -2.68, -3.58, -3.97, -3.53, -3.58, -4.0, -3.72, -3.15, -1.68, -0.94, 0.0, 0.0, -1.98, -2.68, -3.04, -2.84, -2.76, -1.8, 0.0, 0.0, 0.0, -7.55, -7.55, -7.55, -7.55, -7.55, -7.55, -7.55, -7.55, -7.55, -7.27, -6.97, -6.97, -6.97, -6.97, -6.97, -6.97, -6.97, -6.64, -6.64, -6.35, -6.35, -6.35, -6.35, -5.98, -5.98, -5.98, -5.98, -5.98, -5.98, -5.29, -5.29, -5.29, -5.29, -4.84, -4.63, -4.63, -4.63, -4.63, -4.16, -4.16, -4.16, -3.97, -3.97, -3.97, -4.2, -4.0, -4.0, -4.0, -4.0, -4.03, -4.03, -4.03, -3.81, -4.05, -4.05, -3.83, -4.08, -4.36, -4.36, -4.36, -5.05, -5.05, -4.75, -4.75, -5.06, -5.38, -5.06, -5.77, -6.18, -6.21, -5.86, -3.07, -2.17, -2.24, -2.8, -4.34, -3.47, -2.54, -2.5, -3.07, -3.39, -3.58, -4.0, -4.43, -4.2, -2.71, -2.0, -1.04, 0.0, 0.0, -2.73, -2.97, -2.6, -1.74, 0.0, 0.0, 0.0, 0.0, -7.23, -7.23, -7.23, -7.55, -7.55, -7.55, -7.55, -7.55, -7.55, -7.27, -7.27, -7.27, -6.67, -6.67, -6.67, -6.67, -6.67, -6.35, -6.35, -6.35, -6.08, -6.35, -6.35, -6.35, -5.98, -5.98, -5.98, -5.98, -5.98, -5.98, -5.56, -5.29, -5.06, -5.06, -5.06, -4.63, -4.63, -4.63, -4.63, -4.63, -4.42, -3.97, -3.97, -3.97, -4.2, -4.0, -4.0, -4.0, -4.0, -4.03, -4.03, -4.03, -4.05, -4.05, -4.05, -4.32, -4.32, -4.75, -4.75, -4.75, -5.05, -5.05, -5.05, -5.37, -5.37, -5.37, -5.72, -5.37, -6.11, -6.44, -6.0, -2.8, -2.6, 0.0, 0.0, -2.8, -3.6, -1.58, -2.5, -3.07, -3.39, -4.02, -4.3, -4.81, -4.0, -2.71, -1.91, 0.0, 0.0, 0.0, 0.0, -3.47, -3.2, 0.0, 0.0, 0.0, 0.0, 0.0, -7.23, -7.23, -7.23, -7.23, -7.23, -7.23, -7.55, -7.55, -7.55, -7.27, -7.27, -7.27, -6.95, -6.67, -6.67, -6.67, -6.67, -6.67, -6.35, -6.35, -6.35, -6.35, -6.35, -6.35, -5.98, -5.98, -5.98, -5.98, -5.98, -5.98, -5.72, -5.32, -5.06, -5.06, -5.06, -5.06, -4.63, -4.63, -4.63, -4.42, -4.42, -4.42, -4.42, -4.42, -4.2, -4.2, -4.0, -4.0, -4.0, -4.24, -4.03, -4.03, -4.28, -4.46, -4.46, -4.73, -4.73, -5.03, -4.75, -4.75, -5.37, -5.37, -5.37, -5.37, -5.37, -5.68, -5.72, -6.06, -6.06, -6.08, -5.36, -4.55, -3.6, -2.84, 0.0, -2.24, -2.21, -1.9, -2.5, -3.32, -3.98, -4.47, -5.16, -5.46, -5.1, -3.51, -0.97, 0.0, 0.0, 0.0, 0.0, 0.0, 0.0, 0.0, 1.05, 1.23, 1.23, 1.23, -7.23, -7.23, -7.23, -7.23, -7.23, -7.23, -7.55, -7.55, -7.55, -7.27, -7.27, -7.27, -6.95, -6.67, -6.67, -6.67, -6.67, -6.67, -6.35, -6.35, -6.35, -6.35, -6.35, -6.35, -5.98, -5.98, -5.98, -5.98, -5.98, -5.98, -5.72, -5.32, -5.06, -5.06, -5.06, -5.06, -4.63, -4.63, -4.63, -4.42, -4.42, -4.42, -4.42, -4.42, -4.2, -4.2, -4.0, -4.0, -4.0, -4.24, -4.03, -4.03, -4.28, -4.46, -4.46, -4.73, -4.73, -5.03, -4.75, -4.75, -5.37, -5.37, -5.37, -5.37, -5.37, -5.68, -5.72, -6.06, -6.06, -6.08, -5.36, -4.55, -3.6, -2.84, 0.0, -2.24, -2.21, -1.9, -2.5, -3.32, -3.98, -4.47, -5.2, -6.4, -5.69, -4.34, -1.84, -0.98, 0.0, 0.0, 0.0, 1.16, 1.2, 1.25, 1.18, 1.25, 1.25, 1.25]}]